[{"header": {"dx": 0.06612293990616946, "dy": 0.0552356325346848, "nx": 98, "ny": 59, "la1": 35.046912555036876, "la2": 31.78801023549047, "lo1": -121.43107172385933, "lo2": -114.95102361305473, "refTime": "2026040903", "parameterCategory": 1, "parameterNumber": 2}, "data": [12.16, 12.16, 12.16, 12.16, 11.8, 11.8, 11.8, 11.45, 11.45, 11.45, 10.52, 8.93, 9.5, 10.38, 10.14, 10.73, 10.73, 10.41, 10.18, 10.28, 9.39, 9.11, 8.82, 8.94, 8.05, 7.15, 6.26, 6.26, 1.98, 0.0, -2.12, -1.84, 0.0, 0.0, 1.7, 5.21, 6.4, 6.4, 6.8, 6.44, 7.28, 6.95, 9.3, 9.96, 11.44, 12.86, 14.37, 14.88, 15.5, 13.81, 12.96, 2.28, 4.4, 6.87, 7.59, 8.15, 9.48, 10.16, 10.79, 10.92, 11.21, 11.13, 10.7, 10.6, 11.28, 11.03, 11.03, 11.56, 11.21, 11.33, 11.95, 11.59, 11.59, 11.18, 10.28, 9.83, 10.73, 11.62, 12.91, 12.42, 10.28, 7.15, 5.81, 5.77, 6.21, 5.78, 7.97, 8.49, 8.49, 7.15, 2.17, -0.0, 3.53, 8.53, 11.87, 12.14, 10.41, 8.4, 11.79, 12.16, 12.16, 12.16, 11.8, 11.8, 12.16, 12.16, 11.45, 11.52, 10.24, 9.76, 9.46, 9.6, 10.79, 10.84, 10.28, 11.62, 10.28, 9.83, 10.28, 10.28, 9.39, 8.94, 6.71, 6.71, 6.61, 6.51, 4.74, 0.0, -3.0, -1.98, -1.84, 0.0, 4.43, 5.95, 7.2, 7.47, 7.89, 7.67, 6.95, 8.22, 9.17, 10.12, 12.15, 13.07, 14.08, 14.49, 14.29, 13.41, 3.68, 4.4, 7.15, 7.59, 7.59, 9.09, 9.48, 10.62, 10.92, 11.21, 11.21, 11.21, 10.96, 11.4, 11.28, 11.28, 11.03, 11.84, 11.88, 11.91, 11.51, 11.59, 11.59, 11.18, 10.73, 9.83, 10.28, 11.62, 12.91, 12.42, 10.28, 7.15, 5.81, 5.77, 6.21, 5.78, 7.97, 8.49, 8.49, 7.15, 2.17, -0.0, 3.53, 8.53, 11.87, 12.14, 10.41, 8.4, 11.79, 12.16, 12.16, 12.16, 11.8, 11.8, 12.16, 12.16, 11.8, 10.86, 8.85, 6.88, 8.93, 10.68, 10.32, 10.58, 11.18, 10.84, 10.84, 10.6, 9.33, 10.18, 9.3, 9.97, 8.82, 7.15, 6.71, 6.58, 5.58, 0.0, -3.4, -3.2, -3.97, 0.0, 4.74, 7.07, 6.9, 7.67, 8.05, 8.03, 8.22, 8.78, 10.4, 11.71, 12.95, 13.76, 15.2, 15.01, 13.41, 4.8, 5.1, 7.27, 8.24, 8.24, 7.59, 9.09, 10.0, 10.79, 11.21, 11.21, 11.44, 11.44, 10.96, 11.35, 11.18, 10.68, 11.45, 11.84, 11.88, 11.91, 11.95, 12.41, 12.07, 11.18, 10.73, 10.24, 10.25, 12.96, 13.7, 13.28, 10.14, 7.97, 7.55, 6.66, 5.64, 7.08, 7.97, 8.49, 8.94, 8.0, 3.39, 5.2, 8.22, 11.62, 11.62, 9.6, 5.21, 5.63, 11.79, 11.79, 12.16, 12.16, 11.8, 11.8, 12.16, 12.16, 11.52, 10.18, 8.53, 6.79, 8.53, 9.58, 10.0, 10.38, 11.4, 11.71, 11.71, 10.84, 10.84, 9.75, 9.3, 9.67, 9.96, 9.83, 7.15, 7.01, 5.72, 0.0, -3.15, -4.6, -5.36, -2.17, 2.83, 6.64, 7.87, 8.73, 8.22, 8.91, 9.66, 11.6, 12.01, 12.43, 12.85, 13.38, 14.23, 10.0, 6.58, 6.95, 7.13, 7.56, 7.9, 7.9, 8.24, 9.32, 10.6, 11.13, 11.44, 11.44, 11.44, 11.57, 11.57, 11.18, 10.4, 10.68, 11.03, 11.21, 11.03, 12.04, 13.55, 14.62, 14.72, 12.52, 10.14, 9.42, 9.58, 12.3, 15.02, 12.72, 7.89, 5.94, 6.98, 6.07, 7.94, 8.77, 8.82, 8.38, 8.94, 7.59, 5.6, 8.22, 11.18, 10.73, -0.0, -0.0, 1.84, 1.47, 11.79, 11.79, 12.16, 12.16, 12.16, 11.8, 12.16, 12.16, 11.52, 10.18, 8.53, 7.18, 8.93, 8.94, 9.2, 10.4, 11.03, 11.84, 10.8, 8.53, 6.94, 8.93, 8.93, 11.03, 10.18, 10.6, 9.54, 9.11, 6.64, 1.67, -1.47, -3.87, -4.08, -1.44, 1.84, 5.0, 5.0, 7.54, 9.91, 10.43, 11.72, 11.16, 10.75, 11.37, 12.58, 12.07, 10.68, 9.7, 9.32, 8.93, 8.55, 8.93, 8.55, 8.55, 9.6, 10.46, 10.91, 11.4, 11.44, 11.57, 11.62, 11.57, 10.84, 10.0, 10.27, 10.88, 11.03, 11.13, 10.79, 11.45, 13.39, 15.23, 15.9, 15.17, 12.47, 8.3, 8.05, 10.43, 11.76, 11.5, 5.36, 4.6, 6.28, 6.94, 7.06, 7.89, 8.48, 8.48, 11.62, -0.0, -0.0, 7.59, 10.73, -0.0, -1.84, -0.0, -0.0, 1.47, 11.79, 11.79, 11.79, 12.16, 12.16, 12.05, 12.16, 11.52, 11.2, 9.8, 7.64, 6.31, 7.9, 8.38, 9.58, 9.58, 9.97, 10.35, 9.42, 8.01, 4.93, 2.93, 3.25, 7.19, 10.04, 10.04, 8.22, 6.71, 3.98, 0.0, 0.0, -2.97, -2.39, 0.0, 2.2, 4.24, 5.36, 8.15, 11.16, 10.41, 8.28, 7.93, 9.77, 12.39, 12.52, 12.52, 12.01, 11.55, 11.28, 10.75, 10.6, 10.32, 10.18, 10.18, 10.75, 11.53, 11.55, 11.55, 11.57, 11.62, 11.62, 11.11, 10.6, 10.0, 10.46, 10.6, 10.91, 10.47, 10.6, 10.78, 12.24, 13.49, 14.21, 15.27, 15.62, 13.67, 7.58, 6.08, 5.75, 9.26, 3.49, 4.47, 5.82, 6.8, 7.2, 7.07, 6.63, 9.67, 14.3, -13.41, 11.18, 12.52, -0.0, -0.0, -1.33, -0.0, 1.26, 1.62, 11.79, 11.79, 11.79, 12.16, 12.39, 12.39, 11.8, 11.52, 10.86, 9.36, 7.54, 5.9, 7.59, 8.93, 10.35, 8.94, 10.35, 9.62, 8.85, 8.24, 6.3, 4.11, 1.34, 1.42, 4.18, 5.81, 5.99, 3.93, 0.0, 0.0, -2.6, -4.2, -1.93, 1.39, 3.06, 4.38, 5.5, 7.34, 9.02, 8.05, 6.4, 4.1, 6.0, 9.48, 12.0, 11.6, 11.99, 11.53, 11.62, 12.07, 11.62, 10.73, 11.02, 11.02, 11.62, 11.62, 11.62, 11.62, 11.62, 12.07, 11.62, 11.09, 10.6, 10.32, 10.41, 10.47, 10.47, 10.65, 10.65, 10.68, 10.7, 11.52, 12.43, 14.57, 15.12, 15.65, 13.59, 6.79, 4.65, 9.13, 6.08, 4.71, 6.64, 7.4, 7.59, 7.65, 6.21, 0.0, -12.39, -12.96, -12.07, -0.0, -0.0, -0.0, -0.0, 1.26, 1.47, 1.54, 11.42, 11.79, 11.79, 11.79, 12.39, 12.39, 11.8, 11.52, 10.51, 9.02, 6.41, 4.78, 6.42, 8.73, 10.41, 9.3, 10.04, 10.37, 10.37, 10.3, 11.99, 11.99, 9.48, 6.35, 3.69, 4.81, 5.49, 2.28, -2.43, -4.98, -4.48, -4.48, -2.45, 1.77, 4.3, 4.81, 4.99, 5.35, 7.56, 6.76, 7.19, 5.46, 5.09, 7.6, 7.82, 8.31, 8.82, 10.27, 11.51, 11.95, 10.58, 11.18, 11.62, 11.62, 11.62, 11.62, 11.62, 11.62, 11.62, 11.62, 11.62, 10.73, 10.73, 10.65, 10.65, 10.65, 10.66, 10.28, 10.28, 10.73, 10.73, 10.73, 12.07, 13.86, 14.75, 13.86, 12.48, 12.07, 12.52, 13.57, 13.99, 7.73, 5.46, 6.15, 6.21, 4.55, 0.0, -9.17, -10.79, -12.07, -2.71, -0.0, -0.0, -0.0, 1.05, 2.69, 2.83, 1.47, 11.18, 11.79, 11.79, 11.79, 12.39, 12.39, 11.8, 11.52, 10.12, 8.21, 6.24, 4.47, 5.11, 5.8, 7.51, 8.15, 8.44, 9.48, 10.3, 10.73, 12.72, 13.23, 13.53, 12.79, 7.78, 4.4, 3.11, 0.0, -3.07, -4.52, -1.72, -1.51, 0.0, 1.25, 2.62, 3.97, 5.0, 4.54, 5.21, 6.42, 5.8, 5.48, 6.6, 3.96, 2.82, 0.0, 2.93, 6.71, 9.2, 10.18, 11.03, 10.73, 11.62, 11.62, 11.62, 11.62, 11.62, 11.18, 11.62, 11.62, 11.18, 10.73, 10.28, 10.28, 10.18, 10.22, 10.68, 10.73, 10.73, 10.68, 11.14, 11.15, 13.32, 13.79, 13.79, 12.52, 10.73, 10.25, 12.96, 15.2, 16.44, 10.99, 6.4, 4.12, 2.7, 0.0, -5.95, -10.0, -10.73, -3.65, -0.82, -0.72, -0.74, -0.0, 2.06, 4.71, 5.59, 3.32, 11.18, 11.42, 11.79, 11.79, 12.16, 12.39, 12.16, 11.9, 10.12, 7.78, 6.94, 6.43, 6.21, 5.74, 5.81, 5.62, 6.78, 6.99, 5.99, 4.24, 5.8, 7.54, 9.8, 10.86, 9.16, 5.77, 3.8, 2.1, 0.0, 0.0, 0.0, 0.0, 0.0, 0.0, 0.0, 1.23, 4.2, 4.71, 4.46, 8.94, 9.6, 5.8, 6.71, 5.21, 0.0, -8.49, 0.0, 2.49, 9.3, 9.83, 9.83, 10.28, 10.73, 11.18, 11.62, 11.62, 11.62, 11.62, 11.62, 11.57, 11.12, 10.28, 10.28, 8.49, 9.26, 10.18, 11.18, 11.18, 11.62, 11.4, 11.71, 11.42, 13.12, 13.7, 13.34, 12.5, 10.62, 9.72, 11.15, 13.83, 16.06, 16.31, 11.72, 6.64, 6.58, 6.4, -0.0, 8.49, 2.54, 0.96, -0.0, -0.0, -0.0, -0.0, 2.33, 4.96, 5.59, 4.6, 11.18, 11.42, 11.79, 12.16, 12.16, 12.16, 12.16, 11.6, 10.12, 8.59, 7.38, 8.05, 8.31, 7.99, 7.1, 6.4, 7.67, 6.52, 5.49, 5.18, 5.01, 6.03, 6.72, 6.73, 7.06, 5.8, 3.61, 3.61, 1.61, 0.0, 1.43, 1.61, 0.0, -3.53, -1.58, 0.0, 3.53, 2.28, 7.15, 3.2, 5.06, 9.83, 7.27, 6.95, 6.64, 8.49, -0.0, -0.0, -0.0, 6.32, 9.39, 9.39, 9.83, 10.28, 10.73, 11.18, 11.62, 12.01, 12.02, 11.44, 11.11, 9.83, 7.81, 9.11, 9.33, 10.32, 10.91, 11.84, 12.07, 11.45, 11.76, 11.37, 11.95, 12.62, 12.77, 12.33, 10.98, 9.75, 9.24, 11.87, 13.99, 15.46, 14.99, 12.63, 8.94, 6.4, 6.63, 7.28, 5.21, 3.43, 2.29, 1.01, -0.0, -0.0, 2.54, 4.71, 5.31, 5.31, 11.18, 11.18, 11.79, 12.16, 12.16, 12.16, 12.16, 11.6, 10.54, 8.59, 8.66, 9.02, 9.66, 9.42, 9.15, 8.24, 7.6, 7.59, 6.94, 6.14, 5.64, 5.85, 5.18, 6.18, 6.0, 6.3, 6.63, 3.84, 4.03, 2.12, 1.67, 3.72, 6.36, 4.43, 7.59, 0.0, 0.0, 7.6, 7.6, 5.69, 5.37, 7.6, 4.2, 2.97, 4.96, 3.6, 8.49, 8.49, 8.49, 8.94, 8.06, 8.67, 8.77, 8.94, 9.39, 8.94, 10.28, 12.07, 12.45, 10.2, 8.49, 7.07, 6.64, 6.95, 7.27, 7.59, 7.65, 9.08, 10.27, 10.18, 10.28, 10.68, 10.58, 11.64, 11.71, 11.11, 10.68, 9.66, 9.77, 11.2, 12.3, 12.07, 12.52, 14.69, 10.7, 8.67, 8.0, 8.72, 8.17, 5.82, 4.75, 2.4, -0.0, -0.0, 2.26, 3.91, 4.75, 4.75, 11.18, 11.18, 11.79, 12.16, 12.16, 12.16, 12.16, 11.25, 10.54, 9.36, 9.4, 9.73, 9.66, 10.4, 11.41, 11.4, 11.1, 9.48, 7.67, 6.99, 6.94, 6.94, 6.99, 7.89, 8.53, 8.47, 9.03, 7.87, 8.12, 6.23, 6.36, 6.26, 6.26, 5.81, 6.26, -6.26, -4.74, -0.0, -0.0, 5.37, 5.37, 7.15, 0.0, 0.0, 0.0, 1.95, 1.95, 0.0, 2.06, 3.8, 2.82, 4.14, 5.31, 5.06, 7.15, 8.4, 7.81, 10.28, 11.62, 6.71, -4.2, -0.0, 2.28, 1.84, 3.11, 2.6, 4.32, 4.48, 5.92, 7.65, 8.07, 7.87, 8.37, 8.49, 8.91, 10.5, 10.92, 10.41, 10.96, 10.73, 9.11, 9.21, 11.06, 13.28, 12.22, 11.62, 9.9, 9.18, 8.95, 7.6, 5.59, 3.68, 1.25, -0.0, 1.1, 3.45, 3.68, 3.68, 11.18, 11.18, 11.42, 11.79, 12.16, 11.79, 11.79, 11.64, 10.92, 10.12, 9.7, 9.73, 10.07, 10.4, 11.72, 12.03, 12.7, 12.16, 11.26, 10.12, 10.86, 11.17, 11.52, 13.58, 14.73, 14.84, 13.92, 14.0, 13.26, 12.45, 11.11, 9.68, 7.97, 5.81, 4.43, -5.6, -2.8, -0.0, -0.0, 7.6, 6.8, 3.2, 0.0, 1.39, 1.09, 1.09, 0.8, 0.0, 0.0, 0.0, 1.62, 2.95, 5.28, 5.46, 3.96, 3.68, 4.2, 7.63, 10.73, -7.6, -6.95, -2.49, -0.0, 1.93, 1.54, 1.62, 1.22, 1.45, 4.8, 5.9, 6.7, 6.59, 6.7, 9.54, 9.64, 10.6, 10.73, 8.67, 8.4, 8.8, 8.8, 9.26, 11.55, 13.34, 12.14, 12.85, 12.39, 10.01, 8.25, 6.64, 6.6, 5.06, 2.26, 1.18, 1.1, 2.49, 3.45, 3.45, 11.18, 11.18, 11.18, 11.79, 11.79, 11.79, 11.79, 11.64, 10.92, 10.92, 10.12, 10.43, 10.43, 10.75, 11.72, 12.36, 12.65, 13.06, 12.87, 12.3, 12.26, 12.52, 13.68, 14.83, 15.1, 15.84, 15.66, 15.26, 14.95, 14.51, 13.63, 12.18, 10.7, 6.4, 6.4, -0.0, -0.0, -0.0, 3.8, 7.15, 6.8, 7.07, 4.8, 1.52, 1.11, 1.11, 1.11, 0.0, 0.0, 0.0, 0.0, 2.82, 3.11, 1.95, 0.0, 0.0, 0.0, 3.8, 5.69, 8.94, -2.17, -2.28, -0.0, 2.17, 5.21, 3.11, -0.0, 6.95, 6.95, 5.63, 5.15, 5.29, 3.68, -0.0, 10.28, 8.18, 8.23, 7.9, 8.93, 9.45, 9.46, 9.76, 9.34, 10.73, 10.28, 12.42, 13.19, 10.89, 8.97, 7.89, 7.2, 5.77, 3.97, 2.09, 1.96, 3.2, 3.45, 3.45, 11.18, 11.18, 11.18, 12.13, 11.79, 11.79, 11.54, 11.64, 11.34, 10.92, 11.2, 10.81, 10.78, 11.09, 11.73, 12.03, 12.65, 13.33, 13.41, 13.14, 12.87, 13.15, 13.73, 14.79, 15.2, 15.54, 15.82, 15.61, 15.18, 14.88, 14.88, 14.44, 12.21, 10.96, 7.01, 6.4, 1.84, 3.4, 5.69, 8.05, 6.79, 5.72, 5.69, 1.58, 0.0, 0.0, 0.0, 2.54, 2.54, 0.0, 1.58, 1.84, 5.69, 8.05, 7.6, 7.15, 4.22, 3.8, 7.44, 7.81, 3.32, 2.28, 2.69, 5.69, 6.8, 8.05, 6.8, 9.39, 6.95, 4.2, 3.4, -0.0, -12.52, -11.62, 5.0, 5.75, 7.85, 9.53, 9.97, 9.38, 9.4, 9.33, 8.73, 8.44, 8.05, 7.47, 10.2, 9.83, 8.49, 7.81, 7.37, 4.16, 2.99, 2.99, 3.6, 3.72, 3.47, 3.47, 11.18, 11.18, 11.9, 11.53, 11.75, 11.79, 11.54, 11.6, 10.92, 10.92, 11.2, 11.15, 11.44, 11.09, 11.73, 12.02, 11.69, 12.65, 13.05, 13.41, 13.41, 13.39, 13.61, 14.24, 15.04, 15.34, 15.61, 15.65, 15.8, 15.8, 15.91, 15.92, 15.01, 13.23, 6.79, 6.71, 5.95, 6.94, 7.15, 7.37, 5.06, 4.02, 6.01, 1.95, 0.0, -6.32, 8.94, -0.0, 6.01, 8.49, 8.94, 8.94, 8.0, 8.0, 8.48, 8.94, 8.67, 9.21, 9.11, 7.27, 5.29, 5.63, 6.01, 6.7, 7.81, 6.71, 6.8, 0.0, 8.94, 3.8, 8.49, 0.0, 0.0, 11.62, 8.22, 6.7, 7.82, 9.96, 10.29, 9.67, 9.05, 8.63, 8.0, 7.71, 8.43, 8.05, 7.28, 8.49, 8.33, 6.63, 6.32, 4.83, 3.77, 4.46, 4.96, 4.16, 4.01, 4.01, 11.18, 11.18, 11.9, 11.9, 11.75, 11.75, 11.54, 11.25, 11.6, 11.26, 11.6, 11.87, 11.8, 11.44, 11.4, 12.0, 12.02, 12.31, 12.65, 13.32, 13.28, 13.61, 13.35, 13.89, 14.99, 15.73, 16.22, 16.24, 16.26, 16.72, 17.16, 17.16, 16.72, 14.93, 11.28, 7.71, 5.75, 5.01, 5.75, 5.72, 4.56, 3.6, 1.58, 0.0, -8.94, -6.64, -0.0, -0.0, 4.0, 4.2, 6.64, 5.21, 6.64, 7.81, 8.48, 9.11, 9.11, 8.72, 6.95, 6.14, 6.95, 6.64, 7.15, 7.6, 8.49, 7.15, 5.94, 2.4, 3.11, 6.2, 10.04, 11.4, 12.07, 11.87, 10.41, 8.85, 9.76, 10.79, 11.44, 10.63, 10.0, 9.03, 8.4, 8.99, 9.03, 8.06, 8.77, 8.24, 7.6, 6.32, 6.01, 5.1, 4.95, 5.72, 5.59, 5.37, 4.74, 4.74, 11.18, 11.18, 11.53, 11.9, 11.53, 11.75, 11.54, 11.25, 11.6, 11.6, 11.6, 11.87, 12.14, 12.08, 11.44, 12.97, 11.33, 11.69, 12.35, 12.65, 13.71, 13.97, 13.35, 14.56, 13.8, 15.27, 13.02, 15.94, 16.46, 14.9, 15.86, 16.76, 16.76, 16.33, 14.95, 11.62, 7.64, 6.04, 6.53, 5.44, 4.16, 3.4, 1.58, -3.6, -8.49, -0.0, -0.0, 6.64, 4.2, 6.64, 6.64, 5.21, 6.64, 6.32, 6.32, 7.51, 7.51, 6.64, 6.95, 6.95, 7.87, 7.51, 8.0, 7.37, 8.05, 7.6, 6.94, 5.06, 6.32, 9.6, 11.18, 12.03, 13.39, 13.65, 12.89, 12.66, 12.52, 12.52, 12.48, 11.95, 9.7, 9.8, 9.83, 9.83, 9.76, 9.29, 10.14, 10.0, 9.6, 6.95, 5.59, 5.72, 6.01, 6.32, 6.63, 5.37, 5.93, 5.93, 11.18, 11.18, 11.53, 11.53, 11.53, 11.53, 11.9, 11.25, 11.6, 11.6, 11.6, 11.87, 12.52, 12.43, 12.08, 11.73, 11.33, 10.43, 11.06, 11.25, 14.13, 13.39, 12.63, 13.31, 12.15, 12.92, 13.23, 12.82, 14.29, 14.67, 15.42, 15.42, 16.15, 16.35, 15.93, 14.03, 10.83, 8.15, 6.92, 5.78, 6.64, 7.37, 7.2, 6.71, 3.79, -0.0, 6.01, 8.0, 8.4, 6.64, 6.64, 4.96, 4.96, 4.0, 4.83, 4.37, 6.14, 6.01, 7.15, 8.8, 8.4, 8.0, 8.24, 8.49, 7.6, 7.15, 7.15, 7.15, 8.05, 8.48, 9.55, 11.5, 15.83, 18.26, 15.18, 14.18, 11.77, 9.77, 11.54, 11.05, 10.25, 9.83, 8.94, 9.39, 8.94, 8.41, 8.17, 6.91, 9.58, 6.32, 5.36, 6.32, 8.18, 6.98, 6.98, 6.98, 6.28, 6.28, 11.18, 11.18, 11.53, 11.53, 11.53, 11.53, 11.18, 11.54, 11.6, 11.95, 11.9, 12.16, 12.52, 12.78, 12.43, 12.35, 11.33, 10.76, 8.49, 9.82, 12.01, 12.29, 11.99, 11.68, 12.01, 12.32, 11.96, 12.22, 13.66, 14.23, 14.95, 15.21, 15.35, 15.19, 15.42, 14.73, 12.03, 9.3, 7.64, 7.31, 8.28, 9.36, 9.83, 8.94, 7.1, 7.63, 7.6, 8.94, 8.94, 8.0, 7.6, 6.01, 3.6, 2.06, 3.15, 4.14, 4.71, 4.94, 6.95, 8.48, 8.48, 7.07, 8.24, 8.49, 7.6, 6.79, 2.26, -0.0, 1.32, 4.44, 7.14, 10.25, 14.74, 16.31, 15.62, 13.39, 9.02, 8.18, 8.42, 9.43, 9.75, 9.81, 9.39, 8.49, 8.89, 8.38, 8.0, 6.91, 6.45, 6.01, 6.32, 6.95, 8.03, 7.07, 7.28, 7.28, 7.2, 7.2, 11.18, 11.53, 11.53, 11.53, 11.53, 11.53, 11.18, 11.54, 11.6, 11.95, 12.26, 12.16, 12.16, 12.78, 12.78, 12.68, 12.0, 11.06, 10.43, 11.36, 12.01, 11.7, 10.77, 11.08, 12.01, 13.53, 13.49, 13.09, 13.09, 13.58, 13.76, 14.4, 14.82, 14.82, 14.67, 14.51, 13.31, 9.76, 7.35, 6.9, 7.87, 8.87, 8.94, 8.49, 7.12, 5.2, 8.06, 8.49, 8.49, 8.05, 7.21, 4.46, 1.95, 1.95, 1.58, 2.99, 1.95, 2.83, 5.86, 6.32, 5.69, 7.07, 8.24, 8.49, 8.05, 2.4, -0.0, -1.49, -0.0, -0.0, 1.69, 7.28, 11.53, 15.61, 6.79, 8.15, 8.94, 7.89, 6.57, 7.09, 8.03, 8.91, 9.36, 9.35, 9.34, 8.67, 8.6, 8.4, 7.76, 7.13, 8.73, 8.82, 8.82, 7.28, 6.63, 5.93, 6.52, 6.52, 10.9, 10.9, 11.53, 11.53, 11.53, 11.53, 11.54, 11.54, 11.6, 11.95, 12.26, 12.16, 12.52, 12.78, 12.78, 12.68, 12.32, 11.64, 11.4, 12.33, 12.63, 11.96, 10.75, 10.17, 11.7, 13.19, 14.3, 14.23, 13.94, 13.48, 13.36, 13.36, 13.62, 13.76, 13.99, 14.32, 13.31, 9.63, 6.7, 6.1, 7.26, 7.98, 8.47, 8.05, 6.16, 5.05, 7.89, 8.05, 7.6, 7.15, 5.37, 2.4, 1.84, 1.84, 1.84, 1.49, -0.0, 1.14, 4.6, 5.37, 6.44, 8.24, 8.49, 8.49, 5.69, -0.0, -0.0, -0.0, -1.95, -4.0, -4.4, 4.6, 13.75, 8.49, 0.0, 0.0, 1.58, 5.5, 6.56, 5.86, 5.39, 6.68, 8.3, 9.34, 9.39, 9.39, 9.39, 9.26, 9.2, 8.93, 9.62, 8.73, 7.27, 5.69, 6.01, 5.93, 6.4, 6.4, 10.9, 10.9, 11.53, 11.53, 11.53, 11.53, 11.18, 11.54, 11.9, 12.26, 12.26, 12.52, 12.52, 12.78, 12.78, 13.02, 12.68, 11.96, 12.35, 12.63, 13.16, 13.51, 12.31, 10.72, 11.03, 12.27, 13.73, 14.23, 14.51, 14.67, 14.01, 13.87, 13.08, 13.31, 13.62, 14.03, 13.32, 10.21, 6.56, 6.1, 6.51, 7.07, 7.15, 6.68, 5.57, 4.8, 8.33, 8.49, 7.6, 5.37, 4.46, 4.22, 1.84, 1.84, 1.73, 1.73, -0.0, -0.0, 3.8, 5.69, 6.16, 7.01, 7.15, 6.4, -0.0, -0.0, -0.0, -0.0, -0.0, -2.06, -5.69, 9.96, 11.57, 11.62, 10.79, 9.2, 6.32, 3.04, 4.52, 5.92, 5.25, 5.78, 6.01, 6.96, 8.17, 8.48, 9.03, 9.39, 8.05, 5.21, 6.64, 5.44, 5.44, 5.37, 5.93, 6.8, 6.79, 6.79, 10.9, 10.9, 11.28, 11.53, 11.53, 11.53, 11.18, 11.54, 11.9, 12.26, 12.26, 12.52, 12.52, 12.78, 12.78, 13.02, 13.02, 12.32, 12.32, 12.96, 12.87, 13.51, 13.26, 12.65, 11.97, 11.92, 13.66, 14.23, 14.68, 14.4, 14.94, 14.79, 14.22, 14.44, 13.62, 14.23, 13.32, 11.12, 8.0, 6.6, 6.36, 6.61, 7.15, 6.68, 5.99, 5.51, 6.11, 6.11, 5.75, 5.21, 4.46, 5.37, 3.97, 3.97, 2.4, 2.26, -0.0, -0.0, -0.0, 7.2, 7.63, 6.65, 6.71, -0.0, -1.14, -0.0, -0.0, -0.0, -0.0, -0.0, 7.07, 8.18, 12.44, 12.71, 12.98, 13.11, 12.15, 11.11, 7.15, 4.24, 5.16, 5.25, 6.2, 6.88, 6.06, 6.55, 8.17, 8.94, 6.32, 3.52, 4.0, 4.71, 5.3, 5.84, 5.95, 6.4, 6.88, 6.88, 11.28, 11.28, 11.28, 11.53, 11.53, 11.53, 11.53, 11.54, 11.9, 11.9, 12.26, 12.52, 12.52, 12.78, 12.78, 13.02, 13.02, 13.02, 12.68, 12.91, 12.82, 13.1, 13.51, 13.26, 12.65, 12.57, 13.01, 13.94, 14.51, 14.95, 14.82, 15.07, 14.91, 15.14, 14.53, 14.53, 14.23, 12.53, 9.71, 8.1, 7.51, 7.37, 7.6, 7.57, 6.9, 6.47, 6.47, 6.72, 6.23, 5.72, 4.93, 4.37, 6.0, 3.97, 4.22, 4.22, 3.2, 3.2, -0.0, 8.05, 8.49, 8.85, 7.45, 2.26, -0.0, -0.0, -0.0, -0.0, 1.67, 2.54, 8.05, 8.8, 9.79, 11.96, 13.07, 12.72, 13.23, 12.25, 8.05, 3.52, 3.41, 4.81, 6.0, 5.95, 4.67, 6.18, 8.17, 8.06, 5.59, 3.35, 4.96, 5.21, 6.35, 5.95, 6.4, 6.79, 6.88, 6.88, 11.28, 11.28, 11.28, 11.28, 11.53, 11.53, 11.53, 11.53, 11.54, 11.9, 12.26, 12.52, 12.52, 12.42, 12.78, 13.02, 13.02, 13.02, 12.91, 12.91, 13.12, 13.02, 13.1, 12.92, 12.6, 12.92, 13.01, 13.21, 14.13, 14.4, 14.4, 14.03, 14.43, 14.67, 15.02, 15.02, 15.23, 14.03, 12.83, 10.91, 9.51, 8.48, 8.46, 8.01, 7.48, 7.37, 7.4, 7.84, 6.94, 6.47, 5.31, 4.9, 4.6, 4.4, 4.74, 5.06, 6.8, 6.4, 3.0, 6.71, 8.49, 8.05, 9.39, 5.95, -0.0, -0.0, -0.0, -0.0, 3.8, 8.06, 8.49, 8.3, 9.54, 10.28, 10.5, 9.9, 11.64, 11.3, 8.56, 5.37, 1.07, 3.22, 5.63, 4.5, 3.33, 4.65, 7.94, 7.28, 5.31, 5.31, 6.63, 7.81, 7.03, 7.76, 6.94, 7.37, 6.88, 6.88, 11.28, 11.28, 11.28, 11.28, 11.53, 11.53, 11.53, 11.53, 11.54, 11.54, 11.9, 12.52, 12.52, 12.42, 12.42, 12.65, 13.02, 13.23, 12.91, 12.91, 13.12, 13.3, 13.02, 12.52, 12.57, 12.51, 13.01, 13.21, 13.58, 13.48, 13.48, 13.9, 14.29, 14.29, 14.67, 14.67, 15.02, 14.32, 13.53, 11.92, 10.21, 8.91, 8.84, 8.49, 8.41, 8.33, 9.32, 8.42, 7.97, 6.94, 5.81, 4.9, 4.52, 4.66, 4.77, 6.26, 7.15, 6.4, 3.0, -0.0, 7.15, 7.89, 7.81, 6.8, -0.0, -0.0, 1.75, 4.0, 8.94, 8.48, 8.94, 9.21, 8.63, 8.05, 9.7, 10.28, 11.18, 10.25, 8.77, 7.6, 2.54, 1.77, 3.48, 3.68, 4.0, 4.87, 7.15, 6.44, 6.63, 7.2, 7.63, 8.38, 7.63, 7.76, 7.76, 7.85, 7.54, 7.54, 11.28, 11.28, 11.28, 11.28, 11.53, 11.53, 11.53, 11.9, 11.54, 11.54, 11.9, 12.52, 12.89, 12.78, 12.78, 12.65, 12.65, 12.65, 12.85, 12.54, 13.12, 13.3, 13.3, 12.82, 12.52, 12.52, 12.45, 13.01, 13.21, 13.85, 13.48, 13.75, 13.9, 13.9, 14.15, 14.67, 14.51, 14.22, 13.31, 12.11, 10.71, 8.79, 8.28, 8.89, 8.49, 8.33, 9.77, 9.83, 7.6, 6.6, 5.34, 4.46, 3.93, 4.09, 4.92, 4.47, 6.71, 5.06, -0.0, -0.0, 6.4, 7.2, 7.21, 6.01, -0.0, -0.0, 2.58, 3.32, 8.49, 4.0, 7.44, 9.26, 9.33, 8.15, 7.06, 7.9, 9.43, 10.28, 9.39, 8.9, 6.64, 6.4, 5.04, 7.95, 7.81, 6.61, 6.14, 7.06, 7.94, 7.52, 7.94, 7.5, 7.54, 7.57, 7.48, 7.89, 8.0, 8.0, 11.28, 11.28, 11.28, 11.28, 11.28, 11.53, 11.53, 11.9, 11.54, 11.54, 11.54, 12.52, 12.52, 13.14, 13.15, 13.02, 12.65, 12.65, 12.85, 12.54, 13.12, 13.3, 13.47, 13.3, 13.12, 12.82, 12.16, 12.45, 13.01, 13.48, 13.48, 13.75, 13.36, 13.62, 13.76, 14.15, 13.99, 14.22, 13.31, 12.11, 10.71, 9.21, 8.6, 7.92, 7.12, 8.49, 11.15, 9.23, 5.31, 3.48, -0.0, -0.0, -0.0, -0.0, -0.0, 4.92, 3.16, 2.0, -0.0, 6.26, 5.58, 6.52, 7.37, -0.0, -0.0, -1.67, -0.0, 3.65, 4.56, 7.6, 5.69, 7.47, 8.94, 10.73, 10.99, 10.25, 8.53, 9.08, 10.21, 10.28, 9.83, 9.81, 12.3, 13.57, 12.96, 8.33, 8.14, 7.85, 6.71, 7.15, 7.6, 7.94, 8.43, 8.0, 8.45, 8.45, 8.44, 8.44, 10.91, 10.91, 11.28, 11.28, 11.28, 11.53, 11.53, 11.9, 11.9, 11.9, 11.9, 11.79, 12.52, 12.52, 12.78, 13.02, 13.02, 13.02, 13.23, 13.23, 13.12, 13.3, 13.47, 13.3, 13.3, 13.12, 12.45, 12.0, 12.56, 13.11, 13.75, 13.36, 13.36, 13.62, 13.62, 13.87, 13.48, 13.71, 12.79, 11.82, 10.21, 9.21, 8.84, 8.19, 7.28, 8.3, 11.09, 8.3, 4.38, 4.02, 4.02, 3.6, -0.0, -1.55, -0.0, -0.0, -0.0, -0.0, -0.0, -0.0, 6.0, 7.37, 8.06, 3.8, -0.0, -3.6, -5.37, -0.0, 6.44, 7.01, 6.07, 6.79, 8.77, 10.41, 13.41, 14.42, 12.13, 9.0, 9.3, 11.03, 11.09, 10.73, 11.18, 13.31, 13.05, 11.08, 11.56, 9.89, 8.38, 6.67, 7.54, 7.52, 7.6, 7.55, 8.9, 8.9, 8.77, 8.77, 10.91, 10.91, 10.91, 11.28, 11.28, 11.53, 11.53, 11.9, 11.9, 11.9, 11.9, 12.16, 12.16, 12.89, 13.14, 12.78, 13.02, 13.39, 13.61, 13.61, 13.8, 13.68, 13.3, 13.74, 13.58, 13.12, 12.74, 11.52, 13.26, 12.27, 13.36, 13.75, 13.75, 13.36, 13.62, 13.62, 13.48, 13.31, 12.51, 11.41, 10.21, 9.01, 8.84, 8.48, 8.34, 8.91, 10.21, 8.48, 6.23, 5.81, 5.36, 4.92, 4.92, 4.66, 3.48, -0.0, -0.0, -0.0, -0.0, 2.6, 4.43, 6.8, 6.01, 7.2, 6.01, -0.0, -7.6, 8.05, 8.05, 8.49, 7.6, 8.49, 7.27, 10.96, 13.77, 15.18, 12.99, 8.75, 7.47, 9.36, 10.98, 12.07, 11.96, 11.24, 12.42, 12.94, 13.41, 13.41, 10.93, 8.67, 7.89, 8.49, 7.6, 7.15, 8.46, 8.9, 8.45, 8.45, 10.91, 10.91, 10.91, 11.28, 11.28, 11.28, 11.53, 11.9, 11.9, 11.9, 11.9, 12.16, 12.16, 12.16, 13.14, 13.14, 13.02, 13.02, 13.02, 13.61, 13.8, 13.8, 13.97, 13.58, 13.2, 13.2, 12.74, 11.52, 10.94, 12.89, 12.0, 12.93, 13.48, 13.48, 13.36, 13.62, 13.23, 12.95, 12.28, 11.31, 9.71, 8.91, 9.26, 8.76, 8.84, 9.21, 9.86, 9.23, 9.37, 8.92, 8.03, 7.13, 6.23, 5.81, 5.36, 4.38, 4.0, 2.2, 1.7, 1.55, 2.4, 5.06, 7.6, 6.8, 5.69, 5.69, 7.6, 0.0, 6.01, 8.77, 8.94, 8.4, 8.0, 9.75, 13.76, 16.52, 12.83, 9.6, 9.2, 11.53, 12.07, 12.94, 13.21, 13.21, 13.21, 14.11, 14.57, 14.11, 11.86, 8.82, 8.33, 8.94, 8.49, 7.15, 6.71, 8.49, 8.05, 8.05, 10.91, 10.91, 10.91, 10.91, 11.28, 11.28, 11.53, 11.9, 11.9, 12.27, 12.16, 12.52, 12.16, 12.16, 12.76, 13.14, 13.35, 13.02, 13.02, 13.61, 13.8, 14.18, 13.97, 13.97, 13.2, 13.2, 12.92, 11.88, 11.58, 11.8, 12.0, 12.37, 12.93, 12.93, 13.11, 13.36, 13.23, 12.95, 11.88, 10.91, 9.71, 9.13, 9.26, 9.26, 9.46, 9.5, 9.67, 9.67, 9.67, 9.68, 9.68, 9.23, 8.33, 7.07, 5.78, 4.92, 4.43, 3.97, 3.72, 2.84, 2.26, 3.4, 5.37, 5.69, 5.06, 7.6, 7.6, 5.06, 6.01, 8.48, 8.49, 8.8, 9.54, 9.75, 12.98, 16.02, 14.73, 12.94, 11.99, 12.81, 13.83, 14.3, 14.3, 13.86, 13.86, 13.84, 14.26, 13.75, 11.53, 8.84, 7.12, 9.39, 8.9, 7.45, 7.01, 8.05, 8.05, 8.05, 10.91, 10.91, 10.91, 10.91, 11.28, 11.28, 11.53, 11.9, 12.27, 12.27, 12.52, 12.52, 12.52, 12.16, 12.16, 12.76, 12.97, 12.65, 12.65, 13.23, 13.61, 13.8, 13.97, 13.97, 13.58, 13.34, 12.92, 12.09, 11.8, 12.16, 12.37, 12.37, 12.37, 12.37, 12.82, 12.82, 12.7, 12.42, 11.36, 10.4, 9.51, 9.63, 9.75, 9.75, 9.5, 9.64, 10.11, 10.11, 10.01, 10.01, 10.01, 10.01, 9.11, 8.21, 7.4, 6.23, 5.36, 4.44, 4.43, 3.16, 2.0, 3.4, 5.37, 5.37, 8.05, 8.05, 7.15, 6.8, 5.69, 8.06, 8.05, 9.54, 10.28, 11.14, 13.62, 13.83, 14.55, 14.05, 14.17, 14.57, 14.3, 14.23, 13.25, 12.88, 12.96, 13.86, 14.74, 12.94, 10.7, 8.49, 7.6, 7.6, 9.35, 7.76, 6.85, 7.06, 8.36, 8.36, 10.91, 10.91, 10.91, 10.91, 11.28, 11.28, 11.9, 11.9, 12.27, 12.27, 12.52, 12.52, 12.52, 12.16, 12.16, 12.76, 12.76, 12.97, 12.65, 13.23, 13.23, 13.8, 13.8, 13.97, 13.58, 13.2, 12.92, 12.27, 12.09, 12.45, 12.65, 12.37, 12.27, 12.27, 11.9, 12.16, 11.78, 11.75, 10.68, 10.21, 9.92, 9.7, 9.81, 9.93, 10.08, 10.08, 10.11, 10.13, 10.01, 9.86, 9.86, 9.86, 9.43, 8.48, 7.69, 6.61, 5.81, 5.36, 4.44, 3.83, 3.48, 2.2, 5.69, 5.06, 6.8, 8.49, 6.8, 8.49, 8.49, 8.06, 8.0, 8.05, 10.73, 11.51, 12.52, 12.52, 12.93, 13.44, 14.87, 16.48, 16.09, 13.34, 11.4, 11.0, 11.18, 11.18, 11.18, 9.39, 7.15, 8.05, 7.57, 7.56, 8.33, 8.14, 7.06, 7.06, 7.89, 7.89, 10.28, 10.28, 10.91, 10.91, 11.28, 11.28, 11.64, 11.9, 12.27, 12.27, 12.65, 12.52, 12.52, 12.52, 12.16, 12.39, 12.76, 12.97, 12.65, 13.02, 13.23, 13.42, 13.8, 13.97, 13.58, 13.46, 13.2, 12.27, 12.09, 12.45, 12.45, 12.37, 12.27, 12.27, 11.99, 11.62, 10.96, 10.3, 9.88, 9.71, 9.51, 9.7, 8.91, 11.0, 9.29, 9.76, 10.01, 10.47, 10.34, 10.34, 10.18, 10.18, 9.7, 8.48, 7.51, 6.9, 6.23, 5.81, 4.43, 4.57, 3.93, 3.48, 5.37, 5.06, 6.8, 8.94, 6.8, 8.05, 8.49, 7.63, 5.69, 7.2, 9.97, 11.87, 12.77, 12.52, 11.4, 12.37, 15.43, 16.4, 16.03, 12.5, 11.18, 10.28, 9.83, 9.83, 9.83, 7.15, 8.0, 7.45, 7.45, 6.98, 6.94, 8.91, 8.37, 6.54, 6.4, 7.2, 10.28, 10.28, 10.91, 10.91, 11.28, 11.28, 11.64, 11.9, 12.27, 12.27, 12.65, 12.52, 12.52, 12.52, 12.52, 12.39, 12.39, 12.97, 12.97, 13.02, 13.23, 13.23, 13.42, 13.8, 13.58, 13.46, 12.81, 12.54, 12.27, 12.09, 12.45, 12.27, 12.0, 12.27, 11.72, 11.24, 10.41, 9.63, 9.74, 9.6, 9.42, 9.01, 8.34, 10.47, 8.85, 10.21, 10.77, 10.6, 10.42, 10.42, 10.42, 10.42, 9.51, 8.3, 7.09, 6.9, 6.66, 5.81, 4.43, 4.66, 4.4, 4.09, 5.37, 6.71, 7.15, 8.49, 8.49, 7.21, 7.81, 6.7, 5.37, 0.0, 9.39, 10.91, 13.96, 13.21, 11.57, 10.99, 13.83, 15.46, 14.03, 12.05, 11.18, 10.28, 9.39, 9.39, 9.39, 9.32, 10.65, 10.22, 8.44, 7.1, 6.65, 9.11, 8.79, 7.53, 6.36, 6.4, 10.28, 10.28, 10.28, 10.91, 11.28, 11.28, 11.64, 11.9, 12.27, 12.27, 12.65, 12.52, 12.52, 12.52, 12.52, 12.39, 12.39, 12.39, 12.97, 12.97, 13.23, 13.23, 13.42, 13.42, 13.42, 13.46, 13.07, 12.81, 12.16, 11.72, 12.37, 12.09, 12.27, 12.27, 11.72, 11.07, 10.41, 9.48, 9.74, 9.47, 9.47, 9.2, 8.67, 7.6, 9.96, 10.34, 11.21, 10.91, 10.4, 10.4, 10.4, 10.21, 9.2, 8.22, 7.01, 6.64, 6.55, 5.36, 4.92, 4.85, 4.57, 4.66, 5.36, 7.6, 7.6, 7.2, 7.21, 6.32, 6.7, 6.7, 7.63, 5.69, 8.4, 10.28, 12.42, 12.86, 12.15, 11.18, 10.6, 11.42, 10.96, 9.4, 9.74, 9.81, 9.83, 10.28, 10.73, 11.62, 11.62, 11.62, 10.28, 8.05, 7.6, 9.34, 8.73, 7.85, 6.07, 6.36, 10.28, 10.28, 10.28, 10.91, 10.91, 11.28, 11.28, 11.9, 11.9, 12.27, 12.27, 12.51, 12.52, 12.52, 12.16, 12.16, 12.39, 12.39, 12.59, 12.97, 12.97, 12.85, 12.85, 13.42, 13.71, 13.71, 12.93, 12.67, 12.42, 12.16, 11.99, 12.37, 12.09, 12.27, 11.72, 11.07, 10.41, 9.21, 9.48, 9.2, 9.47, 9.05, 8.63, 8.05, 7.87, 10.66, 10.83, 10.3, 9.76, 10.02, 10.16, 9.88, 8.68, 7.71, 7.01, 6.64, 6.42, 5.81, 5.36, 4.92, 4.82, 4.92, 7.15, 7.15, 6.8, 6.8, 7.21, 7.07, 6.32, 6.7, 7.63, 7.63, 6.32, 7.44, 10.28, 11.44, 12.79, 12.98, 10.24, 8.0, 4.83, 6.98, 9.63, 11.13, 11.57, 11.62, 11.62, 11.62, 11.62, 11.62, 10.73, 9.39, 8.05, 9.81, 9.36, 8.01, 6.71, 6.71, 9.92, 9.92, 10.28, 10.28, 10.91, 10.91, 11.28, 11.9, 11.9, 11.9, 12.27, 12.51, 12.16, 12.16, 12.16, 12.16, 12.39, 12.39, 12.39, 12.59, 12.97, 13.15, 13.15, 13.32, 13.32, 13.32, 12.93, 12.53, 12.53, 11.88, 11.88, 11.62, 11.99, 11.9, 11.72, 10.8, 10.15, 9.76, 9.48, 9.35, 9.47, 9.05, 9.03, 9.03, 9.19, 10.24, 10.4, 9.35, 8.43, 8.43, 8.96, 9.2, 8.0, 7.31, 7.01, 6.92, 6.55, 6.21, 5.81, 5.36, 5.36, 4.92, 4.92, 7.6, 6.8, 7.21, 7.63, 7.63, 6.79, 7.81, 8.49, 8.06, 7.81, 6.01, 6.64, 10.08, 11.59, 14.36, 13.39, 11.21, 10.96, 11.62, 11.98, 12.47, 12.31, 12.0, 11.09, 11.12, 11.14, 11.14, 11.14, 9.74, 9.36, 9.72, 8.49, 5.1, 5.1, 5.1, 9.92, 9.92, 10.28, 10.28, 10.91, 10.91, 11.28, 11.28, 11.53, 11.9, 11.9, 12.27, 12.16, 12.16, 12.16, 12.16, 12.39, 12.39, 12.39, 12.59, 12.97, 12.97, 13.15, 13.15, 13.32, 13.32, 12.93, 12.53, 12.14, 12.14, 11.5, 11.5, 11.24, 11.62, 11.72, 10.8, 9.94, 9.3, 8.84, 9.1, 9.47, 9.2, 9.2, 9.2, 9.6, 10.24, 10.54, 9.63, 8.72, 8.0, 8.0, 8.0, 7.31, 6.92, 6.92, 6.92, 6.54, 6.51, 6.2, 5.81, 5.36, 5.36, 4.77, 6.8, 7.6, 7.6, 8.05, 7.63, 7.15, 7.6, 8.05, 8.24, 6.32, 6.64, 5.21, 5.46, 9.8, 13.41, 14.84, 13.75, 12.86, 13.07, 14.21, 13.76, 12.96, 11.88, 10.84, 10.18, 10.08, 10.68, 10.68, 9.4, 9.15, 8.9, 8.0, -0.0, -0.0, -0.0, 9.92, 9.92, 10.28, 10.28, 10.91, 10.91, 11.28, 11.28, 11.9, 11.9, 11.9, 12.27, 12.16, 12.16, 12.16, 12.16, 12.16, 12.39, 12.39, 12.59, 12.97, 12.97, 13.15, 13.15, 13.15, 13.32, 12.93, 12.53, 12.14, 11.75, 11.75, 11.75, 11.5, 11.5, 11.07, 10.51, 9.59, 8.94, 9.21, 9.1, 9.2, 9.32, 9.2, 9.05, 9.2, 9.83, 10.54, 10.67, 9.81, 8.72, 8.72, 7.81, 6.6, 6.4, 6.64, 6.64, 6.54, 6.28, 6.07, 6.2, 5.81, 5.36, 5.26, 5.26, 8.05, 8.05, 8.05, 6.79, 7.21, 7.21, 8.94, 7.6, 5.36, 5.86, 5.72, 5.46, 7.9, 11.57, 13.29, 13.52, 13.89, 16.16, 17.07, 15.54, 13.35, 12.49, 11.58, 10.6, 9.2, 9.2, 10.4, 5.86, 7.31, 8.06, -0.0, -0.0, -0.0, -0.0, 9.92, 9.92, 10.28, 10.28, 10.28, 10.91, 10.91, 11.28, 11.9, 11.9, 11.9, 11.9, 12.16, 12.16, 12.16, 12.16, 12.16, 12.39, 12.39, 12.39, 12.59, 12.97, 12.97, 13.15, 13.15, 13.32, 12.93, 12.53, 12.14, 12.14, 11.75, 11.36, 11.22, 10.96, 10.96, 10.41, 9.3, 9.3, 9.01, 8.93, 9.2, 9.86, 9.32, 9.6, 9.72, 9.83, 10.24, 10.54, 10.54, 9.63, 9.21, 8.72, 7.31, 6.92, 6.25, 6.4, 6.4, 6.4, 6.16, 6.02, 5.73, 5.7, 5.26, 5.26, 5.81, 8.49, 8.05, 7.15, 7.6, 8.05, 6.7, 6.01, 5.36, 5.86, 5.86, 6.64, 9.55, 11.11, 12.03, 11.55, 12.41, 15.86, 17.5, 16.4, 14.79, 13.64, 12.33, 11.6, 10.21, 8.93, 8.4, 5.81, 6.26, -0.0, -1.25, 1.25, 1.25, 1.25, 9.92, 9.92, 10.28, 10.28, 10.63, 10.91, 10.91, 11.28, 11.28, 11.9, 11.9, 11.9, 12.51, 12.16, 12.16, 12.16, 12.16, 12.39, 12.39, 12.39, 12.59, 12.97, 12.97, 13.15, 13.15, 13.15, 12.93, 12.53, 12.14, 12.14, 11.75, 11.36, 11.22, 10.83, 10.68, 10.13, 9.66, 9.3, 9.01, 8.65, 8.93, 9.2, 9.32, 9.47, 9.47, 9.83, 10.24, 9.92, 10.33, 10.33, 9.42, 9.01, 8.0, 7.2, 6.4, 6.21, 6.21, 6.21, 6.16, 6.36, 6.17, 5.7, 5.26, 5.26, 5.36, 8.49, 7.6, 7.63, 8.06, 7.2, 6.79, 5.1, 5.1, 5.36, 7.51, 9.13, 10.08, 11.18, 11.55, 9.86, 10.56, 13.75, 17.38, 16.65, 15.59, 14.53, 13.09, 11.6, 11.09, 7.27, 5.69, 4.84, 5.81, -0.0, -0.0, 4.02, 4.02, 4.02, 9.92, 9.92, 10.28, 10.28, 10.28, 10.91, 11.28, 11.28, 11.28, 11.53, 11.9, 11.9, 11.9, 12.16, 12.16, 12.16, 12.16, 12.16, 12.39, 12.01, 12.01, 12.59, 12.97, 13.15, 13.15, 13.15, 12.77, 12.53, 12.14, 12.14, 11.75, 11.75, 11.22, 10.83, 10.94, 10.4, 9.95, 9.37, 9.01, 8.65, 8.55, 9.2, 9.02, 9.47, 9.47, 9.6, 9.6, 9.83, 9.92, 9.92, 9.83, 9.42, 8.51, 7.48, 6.64, 6.21, 5.58, 5.58, 6.0, 5.94, 5.81, 5.7, 5.2, 4.77, 4.66, 8.05, 7.21, 7.21, 7.81, 7.63, 8.48, 4.71, 4.96, 6.64, 8.4, 9.13, 9.7, 10.28, 10.32, 9.7, 10.62, 12.33, 14.46, 15.25, 15.78, 14.27, 11.58, 10.14, 10.73, 6.64, 0.0, 0.0, 4.92, -0.0, 3.0, 5.95, 5.95, 5.95, 9.92, 9.92, 10.28, 10.28, 10.28, 10.63, 11.28, 11.28, 11.28, 11.9, 11.9, 11.9, 12.27, 12.16, 12.16, 12.16, 12.16, 12.16, 12.39, 12.39, 12.39, 12.59, 12.97, 12.97, 13.15, 12.77, 12.77, 12.38, 12.14, 11.75, 11.75, 11.75, 11.22, 11.08, 10.94, 10.52, 10.04, 9.67, 9.37, 9.01, 8.93, 8.55, 9.02, 9.2, 9.47, 9.6, 9.6, 9.6, 9.71, 9.6, 9.2, 9.01, 8.91, 8.0, 6.52, 6.44, 6.21, 5.58, 5.6, 5.94, 5.81, 5.4, 4.8, 4.4, 4.09, 6.0, 6.36, 6.94, 7.6, 8.49, 8.94, 9.11, 6.64, 6.64, 7.51, 8.4, 9.21, 9.83, 10.08, 9.6, 10.05, 10.79, 10.66, 12.52, 14.75, 14.62, 8.8, 7.5, 6.08, -0.0, -1.84, -5.51, -4.66, -5.81, 6.26, 6.71, 6.71, 6.71, 9.92, 9.92, 10.28, 10.28, 10.28, 10.63, 11.28, 11.28, 11.28, 11.64, 11.9, 11.9, 12.27, 12.16, 12.16, 12.16, 12.16, 12.16, 12.16, 12.39, 12.39, 12.59, 12.97, 12.97, 12.77, 12.77, 12.77, 12.38, 11.99, 12.14, 11.75, 11.75, 11.22, 11.08, 10.94, 10.52, 10.35, 9.78, 9.46, 9.09, 8.73, 8.37, 8.65, 8.65, 9.47, 9.47, 9.6, 10.0, 9.6, 9.6, 9.2, 8.68, 8.68, 7.23, 6.79, 6.52, 6.07, 6.21, 6.0, 5.94, 5.4, 5.4, 4.29, 4.29, 3.93, 4.43, 4.43, 6.0, 7.15, 8.05, 8.49, 8.94, 9.21, 7.87, 7.51, 8.4, 9.11, 9.39, 9.39, 9.7, 9.89, 9.45, 9.48, 11.36, 14.92, 13.23, 9.36, 5.73, 1.41, -0.0, -0.0, -1.63, -3.79, 5.36, 5.2, 5.94, 5.94, 5.94, 9.92, 9.62, 9.92, 10.28, 10.28, 10.28, 10.91, 11.28, 11.28, 11.64, 11.9, 12.27, 12.27, 12.27, 12.16, 12.16, 12.16, 12.16, 12.16, 12.39, 12.39, 12.39, 12.59, 12.59, 12.59, 12.77, 12.77, 12.38, 11.99, 11.99, 11.75, 11.61, 11.22, 11.33, 10.94, 10.52, 10.35, 10.09, 9.52, 9.19, 8.82, 8.82, 8.45, 8.93, 8.93, 9.47, 9.47, 9.6, 9.6, 9.6, 9.2, 8.68, 8.68, 7.61, 7.07, 6.51, 6.0, 6.07, 5.82, 6.0, 5.2, 4.98, 4.6, 4.19, 4.19, 3.79, 4.74, 2.8, 3.72, 5.06, 6.8, 8.33, 9.21, 9.13, 7.87, 7.51, 8.4, 8.94, 9.39, 9.39, 9.7, 9.33, 9.89, 11.46, 16.52, 14.75, 10.73, 7.89, -0.0, -1.55, 1.14, 1.84, 2.8, 4.92, 5.2, 7.15, 7.15, 7.15, 9.62, 9.62, 9.92, 10.28, 10.28, 10.28, 10.63, 11.28, 11.28, 11.64, 11.9, 12.27, 12.27, 12.27, 12.51, 12.51, 12.51, 12.16, 12.16, 12.16, 12.39, 12.39, 12.59, 12.59, 12.59, 12.59, 12.38, 12.38, 11.99, 11.61, 11.61, 11.22, 11.22, 11.33, 10.79, 10.52, 10.35, 10.09, 9.52, 9.52, 8.93, 8.93, 8.76, 8.76, 8.76, 8.93, 8.93, 9.47, 9.6, 9.6, 9.6, 9.07, 8.68, 8.0, 7.44, 6.51, 5.93, 6.0, 6.07, 5.82, 5.21, 4.84, 4.54, 4.54, 4.11, 4.11, 4.74, 3.47, 1.63, 1.73, 1.84, 4.83, 6.01, 6.98, 7.87, 6.64, 7.81, 8.48, 9.39, 9.39, 9.83, 9.64, 10.18, 14.75, 16.99, 15.65, 12.07, 9.21, 5.81, -4.47, 4.92, 6.4, 6.71, 4.8, 7.6, -3.8, -3.8, -3.8, 9.62, 9.62, 9.62, 9.92, 10.28, 10.28, 10.63, 10.91, 11.28, 11.28, 11.64, 11.9, 12.27, 12.27, 12.27, 12.51, 12.51, 12.51, 12.16, 12.52, 12.39, 12.39, 12.39, 12.59, 12.59, 12.21, 12.21, 12.21, 11.99, 11.61, 11.61, 11.22, 11.06, 10.94, 10.79, 10.52, 10.35, 10.09, 9.52, 9.52, 9.14, 8.93, 8.76, 8.76, 8.76, 8.38, 8.93, 8.93, 9.07, 9.47, 9.47, 9.07, 8.54, 8.38, 7.81, 6.92, 6.23, 5.93, 5.38, 5.36, 5.46, 4.81, 4.81, 4.81, 4.81, 4.43, 4.11, 4.11, 3.97, 3.97, 2.82, 3.15, 3.8, 4.83, 3.4, 4.0, 4.96, 6.32, 8.91, 9.11, 9.11, 9.83, 11.58, 14.22, 15.96, 14.57, 11.12, 8.05, -1.8, -1.27, 0.0, 3.2, 5.37, 7.6, -4.96, -4.6, -4.6, -4.6, 9.62, 9.62, 9.62, 9.62, 9.92, 10.28, 10.63, 11.28, 11.28, 11.28, 11.28, 11.9, 12.27, 12.27, 12.27, 12.51, 12.51, 12.51, 12.51, 12.52, 12.76, 12.39, 12.39, 12.59, 12.21, 12.21, 12.21, 11.82, 11.82, 11.61, 11.61, 11.22, 11.06, 10.94, 10.79, 10.52, 10.35, 9.78, 9.7, 9.52, 9.14, 8.76, 8.76, 8.76, 8.76, 8.93, 8.93, 8.93, 9.07, 9.07, 9.07, 9.07, 8.54, 8.38, 7.87, 7.51, 6.57, 5.98, 5.68, 5.38, 5.09, 5.09, 4.75, 4.75, 5.09, 5.09, 4.74, 4.41, 5.95, 5.06, 5.69, 5.1, 5.36, 6.32, 6.32, 4.71, 1.58, 1.75, 4.2, 6.64, 7.44, 7.81, 10.66, 12.96, 14.15, 12.89, 8.33, -4.8, -3.58, -1.66, 0.0, 2.54, 0.0, -4.96, -5.86, -4.71, -4.71, -4.71, 9.62, 9.62, 9.62, 9.62, 9.92, 9.92, 10.28, 10.91, 10.91, 10.91, 11.28, 11.9, 11.9, 12.27, 12.27, 12.27, 12.51, 12.51, 12.51, 12.89, 12.52, 12.76, 12.76, 12.39, 12.21, 12.21, 12.21, 11.82, 11.82, 11.61, 11.22, 11.22, 10.68, 10.79, 10.79, 10.52, 10.35, 9.78, 9.7, 9.7, 9.14, 8.76, 8.76, 8.93, 8.93, 8.93, 8.93, 8.93, 9.07, 9.07, 9.07, 8.93, 9.05, 8.38, 7.87, 7.21, 6.95, 6.28, 5.98, 5.35, 5.38, 5.06, 4.74, 5.09, 5.09, 5.09, 5.09, 5.09, 4.43, 5.37, 6.32, 6.7, 7.07, 8.48, 8.94, 8.94, 4.96, 1.75, 1.75, 1.75, 2.17, 6.32, 9.26, 11.57, 12.68, 12.68, 7.5, -4.8, -3.93, -2.4, 0.0, -8.49, -5.63, -5.86, -5.21, -4.66, -4.66, -4.66, 9.62, 9.62, 9.62, 9.62, 10.28, 10.28, 10.28, 10.28, 10.91, 10.91, 11.28, 11.64, 11.9, 12.27, 12.27, 12.27, 12.51, 12.51, 12.51, 12.51, 12.52, 12.76, 12.76, 12.39, 12.01, 12.21, 12.21, 11.82, 11.44, 11.44, 11.22, 10.68, 10.68, 10.79, 10.24, 10.52, 10.35, 9.78, 9.78, 9.7, 9.7, 9.32, 8.93, 8.93, 8.93, 8.93, 8.93, 8.93, 9.07, 9.07, 8.93, 9.05, 9.05, 8.66, 8.18, 7.56, 6.92, 6.32, 6.28, 5.98, 5.06, 5.06, 5.06, 5.06, 5.72, 5.72, 5.72, 5.43, 5.09, 5.06, 6.32, 6.32, 6.7, 7.2, 8.49, 8.06, 7.07, 1.75, 1.47, 0.0, 1.67, 3.32, 6.64, 9.97, 12.07, 12.94, 9.81, 4.92, -5.36, -7.6, -8.94, -6.64, -5.21, -4.66, -4.66, -4.2, -4.2, -4.2, 9.62, 9.62, 9.62, 9.62, 9.96, 10.28, 10.28, 10.63, 10.91, 10.91, 11.28, 11.28, 11.9, 12.27, 12.27, 12.27, 12.27, 12.51, 12.51, 12.89, 12.52, 12.52, 12.76, 12.39, 12.01, 12.01, 11.63, 11.82, 11.44, 11.06, 11.06, 10.68, 10.68, 10.4, 10.24, 10.52, 9.97, 9.78, 9.78, 9.4, 9.4, 9.02, 9.02, 8.65, 9.32, 8.93, 8.93, 8.65, 8.82, 8.82, 8.93, 8.38, 9.05, 8.49, 8.18, 7.87, 6.92, 6.92, 6.32, 6.01, 5.69, 5.06, 5.06, 5.06, 5.38, 5.72, 5.72, 5.43, 5.43, 5.06, 5.06, 3.97, 3.97, 3.4, 2.54, 4.71, 6.01, 5.1, 2.69, 0.0, 0.0, 1.84, 4.83, 8.54, 11.33, 12.94, 11.18, 8.05, 6.26, -0.0, -5.63, -6.4, -5.21, -4.2, -3.81, -3.81, -3.81, -3.81, 9.62, 9.62, 9.62, 9.62, 9.96, 10.28, 10.28, 10.63, 10.91, 10.91, 11.28, 11.28, 11.9, 11.9, 12.27, 11.9, 11.9, 12.51, 12.51, 12.16, 12.52, 12.52, 12.76, 12.76, 12.01, 11.63, 11.63, 11.63, 11.44, 11.06, 11.06, 10.68, 10.51, 10.4, 10.24, 10.35, 10.35, 9.97, 9.78, 9.4, 9.4, 9.02, 9.02, 9.02, 9.02, 9.02, 8.65, 8.65, 8.82, 8.82, 9.07, 8.38, 8.66, 8.49, 8.49, 7.51, 7.21, 6.92, 6.64, 6.32, 6.01, 5.69, 5.37, 5.06, 5.06, 5.38, 5.72, 6.08, 5.77, 5.06, 3.64, 4.22, 3.97, 5.06, 4.22, 3.6, 6.01, 6.01, 7.44, 2.17, 4.0, 4.2, 6.64, 8.34, 11.11, 12.86, 12.49, 10.73, 8.49, 8.38, 5.63, -1.93, -3.45, -3.65, -3.21, -3.21, -3.21, -3.21, 9.62, 9.62, 9.62, 9.62, 9.62, 10.28, 10.28, 10.28, 10.63, 10.91, 11.28, 11.28, 11.64, 11.9, 11.9, 11.9, 11.9, 12.13, 12.16, 12.16, 12.16, 12.52, 12.52, 12.39, 12.01, 11.63, 11.63, 11.26, 11.44, 11.06, 11.06, 10.68, 10.13, 10.24, 10.24, 10.35, 10.35, 9.97, 9.78, 9.78, 9.4, 9.4, 9.4, 9.02, 9.02, 9.02, 8.65, 8.65, 8.82, 8.82, 8.68, 8.38, 8.38, 8.49, 8.49, 7.81, 7.21, 6.59, 6.64, 6.32, 6.32, 6.01, 5.69, 5.37, 5.68, 5.37, 5.72, 6.08, 6.11, 5.37, 4.29, 5.37, 4.74, 6.8, 6.4, 5.37, 5.69, 8.06, 8.49, 8.48, 6.32, 6.64, 7.33, 8.34, 11.11, 12.3, 12.49, 11.62, 10.26, 9.81, 9.21, 7.33, 1.39, -1.68, -2.76, -2.83, -2.83, -2.83, 9.62, 9.62, 9.96, 9.96, 9.96, 10.28, 10.28, 10.28, 10.28, 10.91, 10.91, 11.28, 11.64, 11.9, 11.9, 11.9, 11.9, 11.9, 11.79, 12.16, 12.16, 12.16, 12.16, 12.16, 12.01, 11.63, 11.63, 11.26, 11.26, 11.06, 11.06, 10.51, 10.4, 10.24, 10.24, 9.97, 9.97, 9.97, 9.78, 9.4, 9.4, 9.4, 9.4, 9.02, 9.02, 9.02, 9.02, 8.65, 8.82, 8.82, 8.54, 8.38, 8.38, 8.18, 8.11, 7.81, 7.51, 6.87, 6.59, 6.32, 6.32, 6.01, 6.01, 5.69, 5.37, 5.68, 5.72, 6.06, 6.11, 5.37, 4.74, 4.54, 4.29, 7.6, 6.71, 5.37, 5.69, 7.6, 8.49, 8.06, 7.15, 6.32, 7.81, 7.96, 10.32, 11.4, 12.05, 11.62, 11.15, 9.81, 9.26, 9.33, 6.64, 0.89, -1.6, -1.75, -1.75, -1.75, 9.62, 9.62, 9.96, 9.96, 9.96, 10.28, 10.28, 10.28, 10.28, 10.91, 10.91, 11.28, 11.64, 11.9, 11.9, 11.9, 11.9, 11.9, 11.79, 12.16, 12.16, 12.16, 12.16, 12.16, 12.01, 11.63, 11.63, 11.26, 11.26, 11.06, 11.06, 10.51, 10.4, 10.24, 10.24, 9.97, 9.97, 9.97, 9.78, 9.4, 9.4, 9.4, 9.4, 9.02, 9.02, 9.02, 9.02, 8.65, 8.82, 8.82, 8.54, 8.38, 8.38, 8.18, 8.11, 7.81, 7.51, 6.87, 6.59, 6.32, 6.32, 6.01, 6.01, 5.69, 5.37, 5.68, 5.72, 6.06, 6.11, 5.37, 4.74, 4.54, 4.29, 7.6, 6.71, 5.37, 7.6, 7.6, 8.49, 8.06, 7.15, 6.32, 7.44, 7.96, 9.2, 10.89, 11.6, 11.62, 11.6, 11.06, 10.02, 8.72, 7.64, 3.7, -0.0, -1.16, -1.16, -1.16]}, {"header": {"dx": 0.06612293990616946, "dy": 0.0552356325346848, "nx": 98, "ny": 59, "la1": 35.046912555036876, "la2": 31.78801023549047, "lo1": -121.43107172385933, "lo2": -114.95102361305473, "refTime": "2026040903", "parameterCategory": 1, "parameterNumber": 3}, "data": [-8.36, -8.36, -8.36, -8.36, -8.85, -8.85, -8.85, -9.3, -9.3, -9.3, -9.02, -7.44, -8.15, -4.15, -1.69, 0.0, 0.0, 2.6, 3.39, 0.0, 0.0, 2.28, 1.47, 0.0, 0.0, 0.0, 0.0, 0.0, -5.94, -6.26, -6.36, -5.51, -5.36, -5.36, -5.09, -3.47, -3.2, -3.2, -3.4, -4.83, -4.37, -6.95, -6.97, -8.3, -8.58, -8.91, -9.88, -9.92, -9.79, -7.36, 0.0, 11.4, 10.27, 8.24, 7.59, 6.98, 5.92, 5.64, 4.32, 3.97, 3.06, 3.34, 3.21, 3.53, 2.82, 3.68, 3.68, 3.47, 3.06, 2.61, 1.71, 0.83, 0.89, 0.0, 0.0, 0.0, 0.0, 0.0, -1.17, -1.55, 0.0, 0.0, 0.0, -0.72, -0.78, -0.64, -1.14, 0.0, 0.0, 5.36, 8.67, 9.83, 10.6, 8.53, 3.96, 3.04, 2.6, 4.2, -8.1, -8.36, -8.36, -8.36, -8.85, -8.85, -9.12, -9.12, -9.3, -9.22, -8.66, -8.54, -6.76, -4.8, -4.32, -2.71, 0.0, 0.0, 0.0, 0.0, 0.0, 0.0, 0.0, 0.0, 0.0, 0.0, -1.1, -1.63, -4.74, -6.71, -6.0, -5.94, -5.51, -5.81, -4.43, -3.97, -3.6, -2.99, -3.15, -4.6, -6.95, -8.22, -9.17, -10.12, -11.22, -12.2, -12.42, -11.94, -9.19, 0.0, 11.03, 10.27, 8.59, 7.59, 7.59, 6.5, 5.92, 4.72, 3.97, 3.06, 3.06, 3.06, 2.19, 2.28, 2.82, 2.82, 3.68, 2.37, 2.16, 1.98, 1.64, 0.83, 0.89, 0.0, 0.0, 0.0, 0.0, 0.0, -1.17, -1.55, 0.0, 0.0, 0.0, -0.72, -0.78, -0.64, -1.14, 0.0, 0.0, 5.36, 8.67, 9.83, 10.6, 8.53, 3.96, 3.04, 2.6, 4.2, -8.1, -8.36, -8.36, -8.36, -8.85, -8.85, -9.12, -9.12, -9.58, -9.31, -8.85, -7.64, -7.44, -4.58, -2.95, -1.76, 0.0, -2.71, -2.71, -3.53, -3.11, -3.39, -6.2, -2.49, -1.47, 0.0, 0.0, -1.32, -3.72, -7.15, -6.8, -6.4, -5.95, -7.6, -4.74, -4.71, -4.14, -4.6, -4.83, -6.42, -8.22, -10.73, -12.29, -13.51, -14.8, -14.68, -13.17, -10.51, 0.0, 9.6, 8.93, 7.27, 6.87, 6.87, 7.59, 6.5, 5.0, 4.32, 3.06, 3.06, 2.08, 2.08, 2.19, 2.52, 3.19, 4.58, 3.82, 2.37, 2.16, 1.98, 1.71, 1.65, 0.0, 0.0, 0.0, -0.93, -0.79, 0.0, -2.11, -1.9, -1.69, -1.14, -0.84, -0.74, -1.41, -1.01, -1.14, 0.0, 0.0, 4.0, 10.18, 10.4, 8.22, 0.0, 0.0, 4.8, 7.81, 7.51, -8.1, -8.1, -8.36, -8.36, -8.85, -8.85, -9.12, -9.12, -9.22, -9.4, -8.53, -8.3, -8.53, -5.75, -5.0, -4.15, -2.28, -2.93, -2.93, -2.71, -2.71, -3.25, -6.2, -6.45, -3.98, 0.0, 0.0, -1.4, -4.29, -7.6, -7.89, -7.67, -7.15, -8.67, -8.48, -6.64, -5.9, -6.98, -8.22, -10.02, -12.87, -14.76, -15.01, -13.47, -11.78, -9.73, -5.34, 5.0, 7.9, 6.95, 6.11, 6.3, 6.58, 6.58, 6.87, 5.32, 3.53, 3.34, 2.08, 2.08, 2.08, 1.05, 1.16, 3.19, 5.2, 4.58, 3.68, 3.06, 3.68, 3.44, 2.9, 1.95, 0.98, 0.0, -1.69, -2.83, -2.21, -2.31, -2.31, -4.24, -3.15, -1.98, -1.55, -1.52, -1.32, -1.75, -1.47, -1.4, 0.0, 7.59, 11.2, 8.22, 0.0, 0.0, 9.39, 9.83, 9.21, 8.82, -8.1, -8.1, -8.36, -8.36, -8.36, -8.85, -9.12, -9.12, -9.22, -9.4, -8.53, -7.97, -7.44, -6.71, -5.52, -5.2, -3.68, -2.37, -5.4, -8.53, -10.41, -5.95, -5.95, -3.68, -3.39, -3.53, -2.39, -2.28, -6.64, -8.33, -8.82, -9.04, -10.88, -11.53, -11.02, -10.0, -10.0, -10.55, -12.11, -15.07, -15.24, -13.39, -10.75, -7.11, -3.14, 0.0, 4.58, 5.54, 5.32, 5.1, 5.7, 5.1, 5.7, 5.7, 4.8, 3.92, 2.42, 2.28, 2.08, 1.05, 0.0, 1.16, 2.71, 5.0, 4.4, 4.08, 3.68, 3.34, 4.32, 3.82, 3.57, 3.58, 2.51, 1.01, -1.04, -3.32, -4.83, -4.01, -2.71, -4.93, -4.02, -2.76, -2.35, -1.73, -2.82, -3.15, -2.83, -2.83, 0.0, 13.41, 12.52, 7.59, 0.0, 8.94, 9.21, 9.39, 8.94, 8.82, -8.1, -8.1, -8.1, -8.36, -8.36, -8.51, -9.12, -9.22, -9.6, -9.8, -9.34, -8.12, -7.9, -6.7, -5.75, -5.75, -5.98, -6.21, -7.54, -9.62, -11.5, -11.71, -13.01, -10.79, -6.7, -6.7, -8.22, -8.94, -9.96, -10.73, -9.39, -8.91, -9.54, -12.07, -13.23, -12.72, -11.8, -11.21, -13.39, -15.62, -13.8, -11.9, -7.82, -1.77, 0.0, 0.0, 1.2, 1.28, 2.82, 3.07, 3.53, 2.95, 3.39, 3.39, 3.07, 1.44, 1.28, 1.28, 1.16, 0.0, 0.0, 1.23, 3.53, 5.0, 3.92, 3.53, 2.42, 2.33, 3.53, 2.94, 2.62, 3.17, 3.95, 3.39, 0.98, -2.28, -4.74, -4.56, -2.47, -1.54, -4.65, -5.59, -4.16, -3.4, -3.6, -4.71, -5.31, -6.45, 0.0, -0.0, 0.0, 0.0, 9.39, 8.49, 9.29, 9.39, 8.85, 9.7, -8.1, -8.1, -8.1, -8.36, -8.01, -8.01, -8.85, -9.22, -9.31, -10.22, -9.42, -7.87, -7.59, -5.95, -6.21, -6.71, -6.21, -8.01, -8.85, -9.42, -11.33, -13.7, -14.69, -15.58, -14.61, -13.56, -13.97, -13.75, -12.96, -10.73, -10.41, -8.4, -9.64, -9.74, -11.21, -13.15, -13.2, -11.75, -10.52, -10.73, -12.79, -12.3, -11.99, -9.48, -8.57, -5.8, -3.6, -1.44, 0.0, 0.0, 0.0, 0.0, 1.84, 1.84, 0.0, 0.0, 0.0, 0.0, 0.0, 0.0, 0.0, 1.39, 3.53, 2.95, 2.6, 2.33, 2.33, 1.33, 1.33, 0.97, 0.82, 1.54, 1.46, 2.3, 1.59, 0.0, -2.72, -5.1, -3.49, -3.65, -4.56, -7.07, -6.64, -6.48, -7.59, -8.75, -10.35, -13.41, -6.2, -0.0, -0.0, 12.07, 8.05, 8.49, 8.94, 8.85, 8.82, 9.26, -7.85, -8.1, -8.1, -8.1, -8.01, -8.01, -8.85, -9.22, -9.7, -9.92, -9.16, -8.6, -8.03, -6.98, -6.94, -6.2, -6.7, -7.78, -7.78, -8.59, -6.0, -6.0, -9.48, -14.3, -14.75, -14.42, -14.65, -15.93, -14.55, -12.45, -11.21, -11.21, -12.27, -12.39, -10.32, -11.55, -11.97, -9.81, -8.82, -9.46, -10.79, -12.74, -15.27, -15.19, -14.07, -11.64, -7.56, -4.4, -1.64, -1.71, -1.76, 0.0, 0.0, 0.0, 0.0, 0.0, 0.0, 0.0, 0.0, 0.0, 0.0, 0.0, 0.0, 1.33, 1.33, 1.33, 1.18, 0.0, 0.0, 0.0, 0.0, 0.0, 0.0, 0.0, 0.0, 0.0, 0.89, 0.0, 0.0, -4.52, -7.0, -9.27, -8.18, -8.79, -10.35, -12.14, -12.52, -9.17, -7.19, -0.0, 10.84, 6.26, 7.6, 8.49, 8.43, 8.06, 8.48, 8.82, -8.2, -8.1, -8.1, -8.1, -8.01, -8.01, -8.85, -9.22, -10.12, -10.03, -9.81, -10.73, -11.92, -11.6, -10.01, -9.5, -9.84, -9.48, -8.59, -8.05, -4.24, -2.2, -3.01, -6.4, -10.37, -10.27, -9.33, -13.86, -15.34, -13.57, -13.75, -15.12, -15.2, -13.8, -12.24, -10.92, -10.0, -10.21, -8.34, -8.03, -11.6, -13.7, -13.19, -11.87, -11.28, -11.18, -11.71, -8.94, -4.6, -3.39, -3.68, 0.0, 0.0, 0.0, 0.0, 0.0, 0.0, 0.0, 0.0, 0.0, 0.0, 0.0, 0.0, 0.0, 1.45, 1.14, 1.07, 0.0, 0.0, -1.07, -0.93, -0.7, -1.57, -1.38, -1.38, 0.0, 0.0, 0.85, 0.0, 0.0, -1.83, -9.16, -7.47, -7.42, -9.46, -10.28, -8.93, -5.0, -0.0, 9.13, 5.75, 5.77, 6.66, 8.05, 8.24, 7.07, 6.98, 8.3, -8.2, -7.85, -8.1, -8.1, -8.36, -8.01, -8.36, -8.72, -10.12, -10.37, -10.41, -11.26, -10.35, -12.12, -12.58, -12.18, -12.6, -12.99, -13.48, -12.72, -11.6, -10.55, -9.8, -9.31, -10.99, -10.09, -7.6, -10.52, -14.75, -14.3, -14.75, -16.54, -15.65, -13.86, -12.07, -11.11, -8.4, -7.07, -6.7, 0.0, -4.8, -11.6, -8.94, -7.81, -8.49, -0.0, -8.49, -9.97, -6.2, 0.0, 0.0, 0.0, 0.0, 0.0, 0.0, 0.0, 0.0, 0.0, 0.0, -1.05, -1.11, 0.0, 0.0, 0.0, 1.54, 1.45, 0.0, 0.0, 0.0, -2.28, -2.93, -2.14, -2.76, -2.06, -1.4, -0.69, -1.52, -1.5, -0.8, -0.92, -1.07, -2.72, -6.51, -3.69, -1.32, 3.2, 8.05, 0.0, 7.63, 5.73, 5.36, 5.36, 6.71, 7.6, 8.17, 7.44, 6.98, 7.67, -8.2, -7.85, -8.1, -8.36, -8.36, -8.36, -8.36, -9.11, -10.12, -10.3, -10.66, -11.28, -11.09, -11.32, -12.42, -12.79, -13.64, -14.22, -14.65, -16.18, -16.7, -16.36, -15.11, -12.62, -12.95, -11.6, -9.63, -9.63, -12.86, -13.86, -12.88, -12.86, -12.07, -10.6, -11.06, -12.07, -10.6, -9.11, 0.0, 6.4, 5.06, 0.0, -7.27, -6.95, -6.64, 0.0, 8.49, 8.49, 8.49, 6.32, 0.0, 0.0, 0.0, 0.0, 0.0, 0.0, 0.0, -1.2, -1.09, -2.08, -1.23, 0.0, 1.95, 2.28, 3.11, 2.95, 2.42, 2.37, 0.0, -3.82, -4.28, -4.06, -3.73, -2.97, -2.25, -2.18, -2.06, -3.25, -3.36, -3.96, -3.0, -2.38, -2.5, -2.92, 0.0, 3.2, 5.31, 4.37, 3.47, 4.12, 5.34, 7.08, 6.71, 6.71, 7.63, 7.07, 6.63, 6.63, -8.2, -8.2, -8.1, -8.36, -8.36, -8.36, -8.36, -9.11, -9.67, -10.3, -10.24, -10.52, -11.15, -10.77, -9.8, -9.42, -9.94, -12.65, -14.52, -15.36, -14.11, -14.03, -13.81, -13.39, -11.99, -11.33, -10.61, -6.03, -6.44, -6.36, -8.33, -5.58, 2.12, 4.43, -7.59, -10.28, -10.28, 0.0, 0.0, 5.69, 5.37, 0.0, -8.4, -8.91, -7.44, -7.2, 0.0, 0.0, 0.0, 0.0, -2.69, -2.17, -1.75, 0.0, 0.0, 0.0, 0.0, 0.0, -1.25, -1.28, 0.0, 4.71, 6.64, 6.95, 7.27, 7.59, 8.75, 7.95, 4.4, 1.45, 0.0, -1.07, -1.76, -3.18, -2.93, -3.42, -3.29, -3.51, -4.44, -5.6, -4.1, 0.0, 0.0, -1.34, 0.82, 3.61, 4.0, 3.49, 3.63, 4.16, 5.93, 7.21, 7.15, 6.71, 6.79, 6.52, 5.93, 5.93, -8.2, -8.2, -8.1, -8.36, -8.36, -8.36, -8.36, -8.84, -9.67, -10.22, -10.18, -10.48, -11.15, -11.09, -10.7, -10.06, -9.02, -9.48, -10.45, -11.44, -10.41, -10.41, -11.44, -10.85, -8.53, -6.59, -4.92, -4.24, -3.75, -2.49, -2.12, 0.0, 0.0, 0.0, 0.0, -0.0, 4.74, 7.6, 7.6, 5.37, 5.37, 0.0, -9.39, -8.94, -8.49, -7.81, -7.81, -8.49, -8.24, -7.6, -7.06, -6.9, -6.63, -5.06, -5.36, -4.2, -1.95, 0.0, 0.0, 0.0, 8.4, 9.83, 9.11, 9.21, 9.33, 10.41, 10.79, 11.21, 9.48, 8.75, 7.06, 5.9, 3.14, 0.0, -2.97, -3.82, -3.97, -2.6, -2.19, 0.0, 2.28, 1.84, 1.58, 1.9, 2.72, 4.65, 4.13, 3.53, 4.07, 3.8, 4.47, 6.13, 7.5, 6.71, 6.61, 5.75, 6.13, 6.13, -8.2, -8.2, -7.85, -8.1, -8.36, -8.1, -8.1, -8.31, -9.24, -10.12, -10.51, -10.48, -10.78, -11.09, -11.03, -10.69, -9.88, -9.12, -9.53, -10.12, -9.31, -8.94, -9.22, -7.76, -5.26, -4.95, -3.28, -2.95, -1.99, -1.31, -1.23, -1.76, -1.14, -2.32, -4.43, 2.8, 5.6, 7.15, 7.15, 0.0, -3.4, -6.4, -10.28, -11.09, -9.77, -9.77, -8.01, -9.83, -10.73, -10.73, -9.7, -10.32, -12.33, -12.74, -11.87, -11.03, -8.4, -2.54, 0.0, -0.0, 6.95, 9.97, 10.28, 9.64, 9.26, 9.7, 9.76, 10.18, 9.6, 7.87, 8.38, 8.47, 8.38, 2.39, -1.93, -3.53, 0.0, 2.17, 4.2, 4.4, 4.4, 1.54, 1.28, 1.33, 3.04, 3.85, 3.81, 3.85, 3.44, 3.69, 3.77, 5.06, 6.79, 7.06, 6.61, 6.23, 5.75, 5.75, -8.2, -8.2, -8.2, -8.1, -8.1, -8.1, -8.1, -8.31, -9.24, -9.24, -10.12, -10.43, -10.43, -10.75, -11.03, -10.99, -10.65, -10.15, -9.66, -9.67, -8.99, -8.61, -7.6, -6.24, -5.56, -4.75, -3.73, -3.47, -2.72, -2.64, -2.48, -2.9, -3.21, -3.2, -3.2, 7.6, 8.05, 7.6, 7.6, 0.0, -3.4, -4.71, -9.6, -10.62, -8.87, -8.87, -8.87, -8.49, -8.49, -9.83, -10.28, -9.89, -9.33, -7.81, -7.15, -7.6, -7.6, -7.6, -5.69, 0.0, 8.67, 9.11, 8.94, 8.67, 7.81, 9.33, 9.83, 6.95, 6.95, 7.51, 6.18, 8.82, 11.03, 10.73, 0.0, 5.46, 6.17, 6.58, 5.1, 4.05, 2.7, 1.22, 0.93, 0.0, 0.0, 1.55, 2.4, 2.51, 2.76, 3.15, 3.6, 4.95, 5.95, 7.31, 6.88, 6.4, 5.75, 5.75, -8.2, -8.2, -8.2, -7.58, -8.1, -8.1, -8.46, -8.31, -8.72, -9.24, -9.6, -10.04, -10.07, -10.4, -10.35, -10.69, -10.65, -10.53, -10.43, -10.05, -9.66, -9.28, -8.39, -7.4, -6.52, -5.65, -4.82, -3.9, -3.79, -3.1, -3.1, -3.01, -2.77, -2.19, -1.4, 3.2, 7.37, 6.8, 5.69, 0.0, -2.26, -4.29, -5.69, -7.89, -8.05, -8.05, -8.49, -7.63, -7.63, -8.05, -7.89, -7.37, -5.69, 0.0, 0.0, 0.0, -6.32, -7.6, -4.96, 5.21, 8.3, 9.11, 8.06, 5.69, 3.4, 0.0, -3.4, 0.0, 6.95, 8.4, 6.8, 9.83, -0.0, -0.0, 10.0, 9.58, 9.16, 7.41, 5.98, 5.21, 4.18, 3.11, 1.94, 0.94, 0.0, -2.99, -1.28, 0.0, 0.0, 1.95, 4.21, 5.82, 6.99, 6.99, 7.2, 5.58, 5.21, 5.21, -8.2, -8.2, -7.93, -7.69, -7.34, -8.1, -8.46, -9.11, -9.24, -9.24, -9.6, -9.66, -10.01, -10.4, -10.35, -10.02, -10.39, -10.65, -10.87, -10.43, -9.68, -8.93, -8.59, -7.5, -5.73, -4.88, -3.9, -3.76, -3.04, -3.04, -2.45, -2.36, -2.4, -2.2, -2.26, 0.0, 3.97, 1.73, 0.0, -1.84, -5.06, -5.36, -6.01, -7.81, -9.39, -6.32, 0.0, 8.49, 6.01, 0.0, 0.0, 0.0, 4.0, 4.0, 2.83, 0.0, -2.17, -1.84, 2.28, 7.27, 8.82, 7.51, 6.01, 4.46, 1.95, 0.0, -3.4, -8.05, 0.0, 7.6, 0.0, -11.18, -12.96, 0.0, 8.22, 10.04, 9.77, 8.3, 7.12, 6.45, 5.76, 4.71, 4.0, 2.31, 1.05, 0.0, -4.37, 0.0, 1.67, 5.31, 6.32, 6.44, 6.6, 6.7, 7.44, 5.82, 4.81, 4.81, -8.2, -8.2, -7.93, -7.93, -7.34, -7.34, -8.46, -8.84, -9.11, -9.53, -9.11, -9.49, -9.58, -10.01, -10.06, -9.33, -10.02, -10.37, -10.65, -9.81, -9.09, -8.59, -8.16, -6.17, -4.5, -3.42, -3.24, -3.12, -3.01, -2.99, -3.06, -3.06, -2.99, -2.87, -2.82, -2.31, -3.45, -3.76, -3.45, -4.29, -6.08, -7.2, -7.89, -8.49, -0.0, 6.64, 8.94, 8.94, 8.0, 8.4, 6.64, 7.81, 6.64, 5.21, 2.83, 2.28, 2.28, 3.49, 6.95, 7.68, 6.95, 6.64, 5.36, 3.8, 0.0, 0.0, -1.98, -7.21, -9.33, -9.3, -6.7, -2.28, 0.0, 3.96, 6.94, 8.85, 8.54, 7.19, 6.1, 5.72, 5.0, 4.92, 3.06, 2.7, 2.58, 2.69, 1.75, 2.06, 3.8, 6.32, 7.21, 6.79, 5.77, 6.87, 6.98, 5.37, 4.74, 4.74, -8.2, -8.2, -7.69, -7.93, -7.69, -7.34, -8.46, -8.84, -9.11, -9.11, -9.11, -9.49, -9.87, -9.95, -10.01, -10.97, -9.44, -10.39, -9.61, -8.43, -7.54, -7.98, -8.16, -7.84, -6.37, -6.36, -4.74, -5.87, -5.76, -4.77, -4.7, -4.79, -4.79, -4.67, -4.6, -4.65, -5.46, -6.59, -7.35, -6.52, -5.82, -6.8, -7.89, -7.2, -0.0, 8.94, 8.94, 6.64, 8.4, 6.64, 6.64, 7.81, 6.64, 6.32, 6.32, 5.63, 5.63, 6.64, 6.95, 6.95, 5.9, 5.63, 4.0, 1.84, 0.0, 0.0, -1.73, -5.06, -6.32, -4.8, 0.0, 1.0, 3.57, 4.27, 3.68, 2.81, 0.0, 0.0, 0.89, 1.71, 1.62, 0.82, 0.0, 0.0, 1.22, 1.33, 1.69, 5.0, 4.8, 6.95, 6.98, 6.87, 6.01, 6.32, 5.31, 5.37, 4.75, 4.75, -8.2, -8.2, -7.69, -7.69, -7.69, -7.69, -7.93, -8.84, -9.11, -9.11, -9.11, -9.49, -9.39, -9.5, -9.95, -9.66, -9.44, -10.43, -11.06, -10.22, -9.42, -8.93, -9.97, -11.26, -11.22, -10.33, -9.92, -8.16, -8.33, -7.63, -7.12, -7.12, -6.58, -6.06, -5.9, -5.85, -6.27, -6.98, -6.34, -4.21, -3.69, -4.21, -3.6, 0.0, 3.79, 8.05, 6.01, 4.0, 4.2, 6.64, 6.64, 7.44, 7.44, 8.0, 6.44, 7.28, 7.68, 6.01, 5.36, 4.4, 4.2, 4.0, 2.06, 0.0, 0.0, 0.0, 0.0, 0.0, 0.0, 2.83, 3.82, 4.93, 6.16, 4.35, 0.76, -1.89, -6.42, -7.82, -3.55, -1.7, -0.79, 0.0, 0.0, 0.0, 0.0, 1.2, 2.33, 4.94, 5.75, 6.32, 7.15, 6.32, 5.46, 5.59, 5.59, 5.59, 5.03, 5.03, -8.2, -8.2, -7.69, -7.69, -7.69, -7.69, -8.2, -8.46, -9.11, -9.39, -8.72, -9.12, -9.39, -9.02, -9.5, -9.61, -9.44, -10.09, -9.8, -11.6, -12.01, -11.06, -11.39, -11.07, -12.01, -11.7, -10.77, -10.47, -10.1, -10.08, -8.97, -8.52, -8.27, -7.6, -7.12, -6.48, -6.88, -6.97, -5.46, -3.37, -1.91, -0.72, 0.0, 0.0, 0.89, 2.54, 3.8, 0.0, 0.0, 4.0, 3.8, 6.01, 7.2, 8.24, 7.89, 6.9, 7.07, 6.91, 6.95, 2.83, 2.83, 4.71, 2.06, 0.0, 0.0, 2.26, 6.79, 7.6, 7.94, 7.76, 9.17, 9.32, 6.45, 2.72, -0.87, -5.02, -10.52, -10.63, -9.26, -6.0, -3.25, -0.75, 0.0, 0.0, 0.99, 1.4, 4.0, 4.94, 5.53, 6.01, 6.32, 6.95, 6.42, 4.71, 4.37, 4.37, 3.6, 3.6, -8.2, -7.69, -7.69, -7.69, -7.69, -7.69, -8.2, -8.46, -9.11, -9.39, -8.99, -9.12, -9.12, -9.02, -9.02, -9.16, -9.33, -9.76, -10.43, -12.02, -12.01, -11.7, -11.96, -11.67, -12.01, -11.69, -11.04, -10.11, -10.11, -9.45, -9.17, -9.0, -8.3, -8.3, -7.63, -6.96, -6.36, -6.31, -5.09, -3.18, -1.69, -1.11, 0.0, 0.0, 0.65, 2.6, 2.69, 0.0, 0.0, 0.0, 2.4, 6.7, 7.81, 7.81, 7.89, 7.47, 7.81, 8.48, 7.33, 6.32, 5.69, 4.71, 2.06, 0.0, 0.0, 7.21, 7.6, 7.45, 7.6, 9.39, 10.14, 10.19, 7.69, 3.9, -5.82, -11.21, -13.91, -14.03, -11.69, -9.21, -6.42, -2.97, -0.78, 0.85, 0.93, 2.17, 2.46, 4.2, 4.44, 6.11, 6.98, 5.29, 5.29, 4.37, 5.31, 4.75, 3.91, 3.91, -8.56, -8.56, -7.69, -7.69, -7.69, -7.69, -8.46, -8.46, -9.11, -9.39, -8.99, -9.12, -9.39, -9.02, -9.02, -9.16, -8.9, -9.06, -10.06, -11.03, -11.36, -10.77, -10.75, -11.3, -11.7, -11.4, -10.73, -10.08, -9.7, -8.79, -8.14, -8.14, -7.7, -7.45, -7.0, -6.3, -6.36, -5.67, -4.46, -2.77, -2.23, -1.06, -0.56, 0.0, 1.12, 2.88, 1.58, 0.0, 0.0, 0.0, 5.37, 7.21, 7.37, 7.37, 7.37, 7.45, 7.15, 7.97, 7.67, 5.37, 4.83, 2.06, 0.0, 0.0, 5.69, 7.6, 6.71, 6.71, 7.81, 8.0, 8.8, 9.2, 1.72, 0.0, -5.81, -9.83, -14.22, -15.12, -14.21, -12.56, -8.76, -5.94, -3.32, -0.93, 0.0, 0.0, 0.0, 1.54, 4.6, 7.44, 8.01, 6.98, 7.27, 5.69, 6.01, 4.75, 3.2, 3.2, -8.56, -8.56, -7.69, -7.69, -7.69, -7.69, -8.2, -8.46, -8.72, -8.99, -8.99, -9.39, -9.39, -9.02, -9.02, -8.68, -9.16, -8.64, -9.61, -9.97, -10.02, -10.29, -10.37, -10.13, -10.45, -11.1, -10.74, -10.08, -9.67, -8.56, -7.92, -7.24, -6.82, -6.36, -5.67, -5.85, -5.21, -4.54, -3.83, -2.77, -1.63, -1.09, 0.0, 0.56, 1.67, 2.4, 1.67, 0.0, 0.0, 5.37, 6.7, 6.32, 7.37, 7.37, 6.94, 6.94, 6.71, 7.15, 7.6, 5.69, 2.64, 1.4, 0.0, 3.2, 6.71, 5.81, 8.05, 8.94, 8.94, 8.24, 5.69, -3.98, -1.05, 0.0, 4.32, 4.6, -6.32, -12.14, -13.57, -13.02, -11.36, -7.95, -6.01, -4.87, -3.63, -2.83, -2.58, 0.0, 4.83, 7.81, 6.64, 6.52, 6.52, 5.37, 4.75, 3.4, 2.26, 2.26, -8.56, -8.56, -8.05, -7.69, -7.69, -7.69, -8.2, -8.46, -8.72, -8.99, -8.99, -8.61, -9.39, -9.02, -9.02, -8.68, -8.68, -8.9, -8.9, -9.55, -9.66, -10.29, -10.61, -10.65, -10.08, -10.13, -10.1, -10.08, -9.4, -9.0, -8.09, -7.4, -6.52, -6.02, -5.67, -5.34, -5.21, -4.68, -4.0, -2.75, -2.12, -1.1, 0.0, 0.61, 1.8, 1.84, 1.36, 1.36, 2.47, 3.47, 3.72, 5.37, 5.95, 5.95, 7.21, 6.79, 7.15, 6.26, 7.6, 3.6, 2.54, 0.83, 0.0, 6.26, 5.7, 8.05, 8.94, 9.39, 8.94, 8.05, -4.71, -5.46, -1.38, 2.54, 4.87, 5.73, 5.67, 1.23, -5.36, -11.3, -12.38, -11.36, -9.3, -7.64, -5.3, -4.68, -2.33, 0.0, 6.32, 8.22, 8.0, 7.07, 6.06, 4.87, 3.97, 3.2, 1.96, 1.96, -8.05, -8.05, -8.05, -7.69, -7.69, -7.69, -7.69, -8.46, -8.72, -8.72, -8.99, -8.61, -9.39, -9.02, -9.02, -8.68, -8.68, -8.68, -9.16, -8.84, -8.97, -9.35, -10.29, -10.61, -10.65, -10.05, -9.47, -9.7, -9.67, -8.97, -8.3, -7.84, -7.16, -6.66, -5.81, -5.81, -5.34, -4.77, -4.57, -3.78, -2.89, -1.84, 0.0, 0.69, 1.88, 1.76, 1.76, 2.44, 2.49, 2.54, 3.08, 3.12, 3.0, 5.95, 6.32, 6.32, 6.4, 6.4, 7.15, 0.0, 0.0, 1.26, 1.49, 6.79, 6.71, 8.94, 9.39, 9.39, 8.33, 7.63, 0.0, -4.4, -0.89, 1.6, 4.61, 7.48, 8.35, 5.45, 0.0, -8.22, -12.51, -13.47, -11.99, -8.93, -6.0, -5.15, -2.33, 2.69, 6.98, 7.81, 7.44, 6.7, 5.64, 3.97, 3.2, 2.26, 1.96, 1.96, -8.05, -8.05, -8.05, -8.05, -7.69, -7.69, -7.69, -7.69, -8.46, -8.72, -8.99, -8.61, -9.39, -8.76, -9.02, -8.68, -8.68, -8.68, -8.84, -8.84, -8.53, -8.68, -9.35, -10.33, -10.71, -10.33, -9.47, -9.19, -9.42, -9.0, -9.0, -8.77, -8.08, -7.63, -6.93, -6.93, -6.44, -5.85, -5.25, -5.17, -3.91, -2.83, -0.71, 0.73, 1.36, 1.84, 1.71, 1.81, 1.73, 1.76, 2.36, 2.18, 1.73, 2.2, 4.74, 5.06, 3.4, 3.2, 6.0, 0.0, 0.0, 0.0, 0.0, 3.97, 8.94, 8.94, 9.39, 8.94, 7.6, 2.69, 0.0, -3.32, -2.39, 0.0, 3.82, 6.09, 6.65, 4.24, 2.57, -5.37, -10.68, -13.94, -13.15, -9.74, -7.33, -5.43, -1.32, 4.37, 6.63, 6.63, 5.31, 3.35, 3.91, 3.45, 3.09, 1.84, 1.96, 1.96, -8.05, -8.05, -8.05, -8.05, -7.69, -7.69, -7.69, -7.69, -8.46, -8.46, -8.72, -8.61, -8.61, -8.76, -8.76, -8.43, -8.68, -8.35, -8.84, -8.84, -8.53, -8.24, -8.68, -9.39, -10.05, -10.13, -9.47, -9.19, -9.45, -8.79, -8.79, -8.11, -8.33, -8.33, -7.63, -7.63, -6.93, -6.3, -5.88, -5.11, -4.54, -2.97, -1.36, 0.0, 1.2, 1.67, 1.16, 1.12, 1.14, 1.73, 2.32, 2.18, 1.94, 1.55, 1.19, 0.0, 0.0, 3.2, 6.0, 6.71, 0.0, -1.58, -1.95, 3.4, 8.94, 10.28, 8.77, 8.0, 0.0, -2.83, 0.0, -1.84, -3.7, -4.83, -1.62, 0.0, 0.0, 0.85, 1.75, 0.0, -7.63, -13.29, -14.79, -11.03, -8.0, -5.84, 0.0, 4.83, 5.31, 3.6, 2.54, 1.4, 2.54, 2.12, 2.12, 1.75, 0.94, 0.94, -8.05, -8.05, -8.05, -8.05, -7.69, -7.69, -7.69, -7.93, -8.46, -8.46, -8.72, -8.61, -8.86, -9.02, -9.02, -8.43, -8.43, -8.43, -8.12, -8.58, -8.53, -8.24, -8.24, -8.97, -9.39, -9.39, -9.48, -9.47, -9.19, -9.04, -8.79, -8.37, -8.11, -8.11, -7.66, -7.63, -6.96, -6.52, -6.36, -5.77, -4.51, -3.3, -1.91, -0.99, 0.0, 1.67, 1.09, 0.0, 0.0, 1.2, 2.29, 2.98, 2.95, 2.73, 0.0, 0.0, 0.0, 5.06, 6.26, 6.71, -3.2, -3.6, -2.4, 6.01, 9.39, 9.39, 9.03, 8.3, 0.0, -8.0, -4.96, -1.54, -1.04, -4.66, -8.07, -7.9, -6.0, -3.08, 0.0, 0.89, -0.95, -10.24, -13.86, -11.35, -5.21, -1.1, 1.23, 2.82, 1.32, 1.07, 1.32, 1.25, 0.94, 0.69, 1.36, 1.58, 0.89, 0.89, -8.05, -8.05, -8.05, -8.05, -8.05, -7.69, -7.69, -7.93, -8.46, -8.46, -8.46, -8.61, -8.61, -8.5, -9.28, -8.68, -8.43, -8.43, -8.12, -8.58, -8.53, -8.24, -7.96, -8.24, -8.53, -8.97, -9.12, -9.48, -9.47, -8.79, -8.79, -8.37, -8.14, -7.7, -7.45, -7.66, -7.0, -6.52, -6.36, -5.77, -4.51, -3.45, -2.46, -1.44, -0.71, 0.0, -0.8, -1.73, -0.76, 3.48, 4.92, 4.92, 4.92, 4.92, 4.92, 0.0, 3.16, 4.0, 6.26, 0.0, -3.72, -3.91, -1.84, 8.49, 8.49, 8.33, 8.49, 9.13, 6.08, 0.0, -5.69, -2.99, 0.0, 0.0, -5.99, -9.32, -8.53, -7.26, -4.54, 0.0, 0.0, -0.7, -4.1, -4.52, 0.0, 1.67, 2.44, 1.75, 0.0, 0.0, 0.0, 1.32, 1.05, 0.89, 0.85, 0.85, 0.94, 0.94, -7.79, -7.79, -8.05, -8.05, -8.05, -7.69, -7.69, -7.93, -7.93, -8.72, -8.72, -8.1, -8.61, -8.61, -9.02, -8.68, -8.68, -8.68, -8.35, -8.35, -8.53, -8.24, -7.96, -8.24, -8.24, -8.53, -8.72, -8.57, -8.56, -8.55, -8.37, -8.14, -8.14, -7.7, -7.7, -7.24, -7.03, -6.56, -6.4, -5.32, -4.54, -3.45, -3.16, -2.23, -2.18, -3.32, -4.75, -3.32, -0.88, 0.0, 0.0, 1.8, 4.47, 4.66, 4.92, 4.92, 5.36, 5.36, 5.36, 5.81, -3.0, -1.84, 2.69, 7.6, 8.49, 7.2, 5.37, 8.49, 4.83, 1.4, -1.52, -2.26, 1.75, 2.6, 0.0, -4.81, -8.4, -7.36, -6.2, -3.68, -1.39, 0.0, 0.0, 1.66, 3.07, 3.5, 3.47, 2.82, 1.4, 0.67, 0.94, 1.07, 0.0, 0.84, 0.81, 0.81, 1.75, 1.75, -7.79, -7.79, -7.79, -8.05, -8.05, -7.69, -7.69, -7.93, -7.93, -8.72, -8.72, -8.36, -8.36, -8.86, -8.5, -9.02, -8.68, -8.93, -8.59, -8.59, -8.28, -8.47, -8.24, -7.49, -7.76, -8.53, -8.28, -8.49, -9.12, -8.18, -8.14, -8.37, -8.37, -8.14, -7.7, -7.7, -7.03, -6.36, -5.96, -5.14, -4.54, -3.94, -3.16, -2.83, -3.21, -4.16, -4.54, -2.83, -0.62, 0.0, 0.0, 0.0, 0.0, 1.55, 3.48, 4.47, 5.36, 5.36, 5.36, 5.2, 4.43, 3.4, 6.01, 3.6, 6.01, 8.05, -0.0, 0.0, 0.0, 0.0, 0.0, 0.0, 7.27, 2.19, 1.53, -0.8, -5.99, -7.65, -6.4, -4.25, -2.06, 0.0, 1.6, 2.96, 3.73, 3.53, 3.5, 3.5, 2.34, 2.17, 1.58, 0.0, 0.0, 0.0, 0.77, 0.81, 0.85, 0.85, -7.79, -7.79, -7.79, -8.05, -8.05, -8.05, -7.69, -7.93, -7.93, -8.72, -8.72, -8.36, -8.36, -8.36, -8.5, -8.5, -8.68, -8.68, -8.68, -8.59, -8.28, -8.28, -7.98, -7.76, -7.54, -7.54, -8.28, -8.49, -8.51, -8.86, -8.57, -8.81, -8.79, -8.79, -8.14, -7.7, -7.48, -7.06, -6.43, -5.36, -4.57, -4.16, -3.31, -3.37, -3.16, -3.45, -2.9, -1.73, -0.62, -0.64, -0.57, -0.55, -0.62, 0.0, 0.0, 0.88, 2.0, 4.4, 5.09, 4.66, 4.8, 5.06, 3.8, 3.4, 5.69, 5.69, 0.0, -7.6, -6.01, -1.75, 0.0, 4.2, 4.0, -3.25, -1.62, -0.79, -1.83, -4.8, -4.6, -1.44, 0.0, 0.81, 2.33, 2.33, 2.3, 2.35, 2.33, 2.35, 2.22, 1.47, 1.67, 0.0, 0.0, 0.0, 0.0, 0.0, 0.0, 0.0, -7.79, -7.79, -7.79, -7.79, -8.05, -8.05, -7.69, -7.93, -7.93, -8.18, -8.36, -8.61, -8.36, -8.36, -8.26, -8.5, -8.16, -8.68, -8.68, -8.59, -8.28, -8.51, -7.98, -7.98, -7.54, -7.54, -8.0, -8.75, -9.14, -8.85, -8.57, -8.83, -8.81, -8.81, -8.55, -8.14, -7.48, -7.06, -6.22, -5.17, -4.57, -3.65, -3.31, -3.31, -2.7, -2.53, -1.81, -1.81, -1.81, -1.71, -1.71, -1.73, -1.67, -1.09, -0.58, 0.0, 0.63, 0.66, 2.48, 2.84, 6.79, 6.8, 5.37, 5.69, 5.06, 0.0, 0.0, -5.06, -6.01, -2.83, 0.0, 4.4, 2.39, -3.25, -4.87, -1.53, 0.82, 3.53, 3.6, 1.97, 0.86, 0.0, 0.0, 0.0, 0.0, 0.6, 1.19, 1.72, 1.44, 1.36, 0.71, 0.0, -0.81, -1.49, -1.4, 0.0, 0.0, 0.0, -7.79, -7.79, -7.79, -7.79, -8.05, -8.05, -7.69, -7.93, -8.18, -8.18, -8.61, -8.61, -8.61, -8.36, -8.36, -8.26, -7.93, -8.43, -8.43, -8.35, -8.59, -8.28, -7.98, -7.98, -7.76, -7.28, -8.0, -8.46, -8.85, -9.12, -8.83, -8.83, -8.83, -8.83, -8.16, -8.16, -7.5, -7.1, -6.25, -5.2, -3.91, -3.61, -3.25, -3.25, -2.53, -1.93, -1.89, -1.89, -2.35, -2.35, -2.35, -2.35, -2.28, -2.19, -1.71, -0.57, 0.0, 0.55, 0.63, 3.16, 4.0, 6.8, 5.37, 5.37, 0.0, 0.0, 0.0, -3.4, -5.69, -2.69, 0.0, 2.39, 0.0, -0.86, -2.55, -0.81, 2.43, 5.79, 5.51, 2.3, 0.0, -1.42, -2.09, -1.43, 0.0, 0.0, 0.7, 0.86, 0.82, 0.0, 0.0, 0.0, -0.85, -2.12, -2.06, -2.82, -1.52, -1.52, -7.79, -7.79, -7.79, -7.79, -8.05, -8.05, -7.93, -7.93, -8.18, -8.18, -8.61, -8.61, -8.61, -8.36, -8.36, -8.26, -8.26, -7.93, -8.43, -8.35, -8.35, -8.28, -8.28, -7.98, -7.76, -7.54, -8.0, -8.18, -8.46, -8.72, -8.43, -8.83, -8.18, -8.18, -7.93, -7.53, -7.29, -6.46, -5.62, -4.54, -4.08, -3.42, -3.07, -2.65, -2.02, -2.02, -1.89, -1.79, -2.35, -2.9, -2.9, -2.9, -2.77, -2.83, -2.37, -1.1, 0.0, 0.0, 0.55, 2.3, 3.48, 4.4, 5.69, 5.06, 3.4, 0.0, 3.4, 0.0, 0.0, -2.69, -4.0, 0.0, 0.0, 1.64, 0.0, 0.0, 0.92, 3.36, 3.13, 1.37, 0.0, -1.4, -2.28, -2.0, 0.0, 0.0, 0.0, 0.0, 0.0, 0.0, -0.69, -0.76, -1.67, -2.44, -2.82, -2.82, -3.15, -3.15, -7.9, -7.9, -7.79, -7.79, -8.05, -8.05, -8.31, -7.93, -8.18, -8.18, -8.43, -8.61, -8.61, -8.61, -8.36, -8.01, -8.26, -7.93, -8.43, -8.68, -8.35, -8.05, -8.28, -7.98, -7.76, -7.05, -7.54, -8.18, -8.46, -8.72, -8.72, -8.83, -8.18, -8.18, -7.8, -7.55, -6.92, -6.29, -5.23, -4.57, -3.91, -3.42, -2.97, -2.0, -1.33, -1.22, -2.35, -2.33, -2.87, -2.87, -3.39, -3.39, -3.42, -2.83, -2.89, -1.88, -0.62, 0.0, 0.63, 1.83, 2.95, 3.48, 5.37, 5.06, 3.4, 0.0, 3.4, 0.0, 0.0, -2.54, -5.69, -3.6, 2.49, 3.96, 2.25, 0.0, -2.28, -1.9, -2.57, -2.14, -1.39, -0.69, 0.0, 0.0, 0.0, 0.0, 0.0, 0.0, -0.89, -1.49, -1.49, -1.55, -1.73, -2.97, -3.14, -2.9, -3.2, -3.6, -7.9, -7.9, -7.79, -7.79, -8.05, -8.05, -8.31, -7.93, -8.18, -8.18, -8.43, -8.61, -8.61, -8.61, -8.61, -8.01, -8.01, -7.93, -7.93, -8.68, -8.35, -8.35, -8.05, -8.28, -7.76, -7.05, -7.32, -7.76, -8.18, -8.46, -8.72, -8.18, -8.57, -8.18, -8.2, -7.31, -6.94, -5.67, -5.48, -4.8, -4.12, -3.94, -3.21, -2.33, -1.26, -1.2, -2.99, -3.53, -4.05, -4.05, -4.05, -4.05, -3.91, -3.32, -2.73, -1.88, -0.74, 0.0, 0.63, 1.55, 2.2, 2.73, 5.37, 0.0, 0.0, 0.0, 0.0, -2.4, -1.95, -4.46, -5.37, -8.49, 0.0, 2.42, 3.1, 2.33, -1.16, -5.99, -7.32, -5.89, -2.81, -0.71, 0.0, 0.0, 0.0, 0.0, 0.0, -1.16, -1.33, -1.14, -0.94, -0.89, -0.83, -2.28, -3.3, -2.83, -2.12, -3.2, -7.9, -7.9, -7.9, -7.79, -8.05, -8.05, -8.31, -7.93, -8.18, -8.18, -8.43, -8.61, -8.61, -8.61, -8.61, -8.01, -8.01, -8.01, -7.93, -7.93, -8.35, -8.35, -8.05, -8.05, -8.05, -7.05, -6.84, -7.32, -7.53, -8.2, -8.04, -8.46, -8.18, -8.18, -8.2, -7.57, -6.94, -5.92, -5.48, -5.05, -5.05, -4.6, -3.61, -3.8, -3.98, -2.87, -4.48, -5.17, -5.2, -5.2, -5.2, -4.54, -4.6, -3.52, -2.92, -2.66, -1.45, 0.0, 0.0, 0.81, 1.83, 1.55, 0.0, 0.0, 0.0, -3.6, -2.4, -4.22, -4.46, -4.46, -2.54, -5.69, -4.2, 0.0, 3.73, 7.23, 5.67, 0.0, -5.78, -7.03, -5.06, -2.89, -1.39, -0.75, 0.0, 0.0, 0.0, 0.0, 0.0, 0.0, 0.0, 0.0, 0.0, -0.93, -1.94, -1.75, -1.52, -2.12, -7.9, -7.9, -7.9, -7.79, -7.79, -8.05, -8.05, -7.93, -7.93, -8.18, -8.18, -7.82, -8.61, -8.61, -8.36, -8.36, -8.01, -8.01, -7.69, -7.93, -7.93, -8.12, -8.12, -8.05, -7.54, -7.54, -7.11, -6.64, -7.1, -7.53, -7.8, -8.04, -8.46, -8.18, -8.2, -7.57, -6.94, -6.33, -5.92, -5.52, -5.05, -4.87, -4.71, -4.83, -5.9, -6.56, -6.27, -6.29, -6.31, -5.89, -5.64, -5.23, -4.63, -3.56, -2.92, -2.66, -1.93, 0.0, 0.0, 0.0, 0.96, 0.0, 0.0, 0.0, -3.4, -3.4, -2.4, -4.71, -4.22, -4.46, -2.54, -2.54, -6.32, -4.96, 0.0, 5.08, 6.4, 4.87, 0.93, -4.0, -6.44, -5.59, -3.61, -1.01, -1.16, 0.0, 0.0, 0.0, 0.0, 0.0, 0.0, 0.0, 0.0, -0.75, -0.78, -0.8, 0.0, 0.0, -7.63, -7.63, -7.9, -7.9, -7.79, -7.79, -8.05, -7.93, -7.93, -7.93, -8.18, -7.82, -8.36, -8.36, -8.36, -8.36, -8.01, -8.01, -8.01, -7.69, -7.93, -7.62, -7.62, -7.32, -7.32, -7.32, -7.11, -6.89, -6.89, -7.13, -7.13, -7.55, -7.8, -7.93, -8.2, -7.96, -7.33, -6.31, -5.92, -5.26, -5.05, -4.87, -4.92, -4.92, -6.36, -6.4, -5.2, -5.26, -5.06, -5.06, -5.04, -4.6, -4.0, -3.37, -2.92, -3.14, -1.45, -0.78, 0.0, 0.0, 0.0, 0.0, 0.0, 0.0, -3.4, -2.4, -2.54, -2.54, -2.26, -1.95, 0.0, -2.69, -5.21, -6.01, -6.64, -2.02, 0.89, 3.38, 5.02, 4.48, 2.19, 0.0, -1.5, -1.13, -2.24, -1.33, -1.39, -1.11, -0.93, -0.86, -0.86, -1.39, -0.72, -1.5, 0.0, 6.79, 6.79, 6.79, -7.63, -7.63, -7.9, -7.9, -7.79, -7.79, -8.05, -8.05, -7.69, -7.93, -7.93, -8.18, -8.36, -8.36, -8.36, -8.36, -8.01, -8.01, -8.01, -7.69, -7.93, -7.93, -7.62, -7.62, -7.32, -7.32, -7.11, -6.89, -6.68, -6.68, -6.9, -6.9, -7.31, -7.55, -8.2, -7.96, -7.6, -6.97, -6.08, -5.69, -5.05, -4.6, -4.6, -4.6, -4.8, -4.48, -3.72, -3.61, -3.49, -4.0, -4.0, -4.0, -3.37, -3.14, -3.14, -3.14, -2.9, -1.63, -0.89, 0.0, 0.0, 0.0, -1.19, -3.4, 0.0, 0.0, 0.0, -2.54, 0.0, 0.0, 0.0, -2.06, -6.32, -6.64, -7.81, -7.64, -4.36, 0.0, 3.3, 6.47, 7.23, 5.81, 3.95, 1.62, 0.0, -2.16, -2.71, -3.39, -3.67, -3.29, -3.29, -2.89, -2.11, -0.89, 4.0, 8.94, 8.94, 8.94, -7.63, -7.63, -7.9, -7.9, -7.79, -7.79, -8.05, -8.05, -7.93, -7.93, -7.93, -8.18, -8.36, -8.36, -8.36, -8.36, -8.36, -8.01, -8.01, -7.69, -7.93, -7.93, -7.62, -7.62, -7.62, -7.32, -7.11, -6.89, -6.68, -6.46, -6.46, -6.46, -6.9, -6.9, -7.57, -7.59, -7.33, -6.71, -6.33, -5.69, -5.52, -5.32, -4.6, -4.87, -4.6, -4.3, -3.72, -3.33, -3.07, -3.49, -3.49, -3.35, -2.75, -3.2, -3.69, -3.69, -2.9, -2.35, -1.52, -0.89, 0.0, 0.0, -1.05, -1.05, 0.0, 0.0, 0.0, 2.26, 2.4, 2.4, 0.0, -3.8, -7.15, -7.33, -8.0, -7.64, -6.58, -1.05, 1.77, 5.91, 8.99, 9.55, 7.82, 5.65, 3.71, 0.83, -0.97, -3.53, -5.52, -5.52, -5.2, -2.2, -2.09, 2.69, 8.49, 8.49, 8.49, 8.49, -7.63, -7.63, -7.9, -7.9, -7.9, -7.79, -7.79, -8.05, -7.93, -7.93, -7.93, -7.93, -8.36, -8.36, -8.36, -8.36, -8.36, -8.01, -8.01, -8.01, -7.69, -7.93, -7.93, -7.62, -7.62, -7.32, -7.11, -6.89, -6.68, -6.68, -6.46, -6.25, -6.5, -6.92, -6.92, -6.94, -6.97, -6.97, -6.61, -5.95, -5.52, -5.26, -5.32, -4.8, -4.54, -4.3, -4.48, -3.72, -3.72, -3.61, -3.45, -3.49, -3.37, -3.14, -3.47, -3.2, -3.2, -3.2, -2.64, -1.72, -0.96, -1.14, -1.05, -1.05, 0.0, 0.0, 0.0, 0.0, 0.0, 0.0, -4.46, -6.01, -7.15, -7.33, -7.33, -6.64, -3.82, -1.23, 1.0, 4.81, 7.98, 9.18, 7.95, 7.13, 6.34, 4.31, 2.18, -0.77, -4.54, -7.44, -4.2, -2.32, 0.0, 7.15, 7.5, 7.5, 7.5, 7.5, -7.63, -7.63, -7.9, -7.9, -8.18, -7.79, -7.79, -8.05, -8.05, -7.93, -7.93, -7.93, -7.82, -8.36, -8.36, -8.36, -8.36, -8.01, -8.01, -8.01, -7.69, -7.93, -7.93, -7.62, -7.62, -7.62, -7.11, -6.89, -6.68, -6.68, -6.46, -6.25, -6.5, -6.27, -6.53, -6.56, -7.24, -6.97, -6.61, -6.34, -5.95, -5.52, -5.32, -5.05, -5.05, -4.3, -4.48, -4.08, -4.26, -4.26, -4.12, -3.94, -4.0, -3.6, -3.2, -3.55, -3.55, -3.55, -2.64, -2.12, -1.03, -1.14, -1.05, -1.05, 0.0, 0.0, 0.0, -2.54, -2.69, -3.6, -5.1, -6.79, -6.79, -7.15, -5.63, -3.65, -2.02, 0.0, 1.28, 6.16, 6.72, 6.47, 7.11, 8.68, 7.8, 5.81, 2.91, 0.73, -1.39, -7.27, -5.69, -3.22, 0.0, 6.26, 6.71, 5.36, 5.36, 5.36, -7.63, -7.63, -7.9, -7.9, -7.9, -7.79, -8.05, -8.05, -8.05, -7.69, -7.93, -7.93, -7.93, -8.36, -8.36, -8.36, -8.36, -8.36, -8.01, -7.77, -7.77, -7.69, -7.93, -7.62, -7.62, -7.62, -7.39, -6.89, -6.68, -6.68, -6.46, -6.46, -6.5, -6.27, -6.08, -6.12, -6.84, -6.87, -6.61, -6.34, -5.7, -5.52, -5.8, -5.05, -5.05, -4.8, -4.8, -4.3, -4.08, -4.08, -4.3, -4.12, -3.97, -4.03, -3.69, -3.55, -3.72, -3.72, -3.0, -1.98, -2.32, -1.14, -1.3, -1.19, -1.55, 0.0, -2.4, -2.4, -1.95, -2.54, -2.83, -7.07, -7.44, -6.64, -4.2, -3.65, -1.62, 0.0, 2.95, 5.54, 4.72, 5.28, 8.03, 10.17, 9.32, 6.42, 3.41, 1.69, 0.0, -6.64, -6.71, -5.36, 0.0, 6.26, 6.0, 3.97, 3.97, 3.97, -7.63, -7.63, -7.9, -7.9, -7.9, -8.18, -8.05, -8.05, -8.05, -7.93, -7.93, -7.93, -8.18, -8.36, -8.36, -8.36, -8.36, -8.36, -8.01, -8.01, -8.01, -7.69, -7.93, -7.93, -7.62, -7.39, -7.39, -7.17, -6.68, -6.46, -6.46, -6.46, -6.5, -5.83, -6.08, -5.92, -6.7, -6.45, -6.87, -6.61, -5.95, -5.7, -5.8, -5.52, -5.05, -4.8, -4.8, -4.8, -4.57, -4.8, -4.6, -3.94, -4.16, -4.0, -3.91, -4.03, -3.55, -3.72, -2.8, -1.98, -2.32, -2.16, -2.4, -2.2, -2.73, -3.0, -2.12, -1.73, 0.0, 0.0, 0.0, -2.28, -6.64, -6.64, -5.63, -4.2, -1.84, 0.0, 2.02, 4.8, 3.77, 4.32, 7.38, 9.39, 8.43, 5.57, 1.6, 1.25, 4.56, 5.81, 5.51, 1.84, 1.55, -0.0, 0.0, 0.0, 0.0, 0.0, -7.63, -7.63, -7.9, -7.9, -7.9, -8.18, -8.05, -8.05, -8.05, -8.31, -7.93, -7.93, -8.18, -8.36, -8.36, -8.36, -8.36, -8.36, -8.36, -8.01, -8.01, -7.69, -7.93, -7.93, -7.39, -7.39, -7.39, -7.17, -6.94, -6.68, -6.46, -6.46, -6.5, -5.83, -6.08, -5.92, -6.21, -6.29, -6.76, -6.5, -6.24, -5.98, -5.56, -5.56, -5.05, -5.05, -4.8, -5.0, -4.8, -4.8, -4.6, -4.63, -4.63, -4.45, -4.32, -3.91, -3.79, -3.55, -3.0, -1.98, -2.16, -2.16, -3.22, -3.22, -2.95, -4.43, -4.43, -3.0, 0.0, 0.0, 0.0, 0.0, -1.84, -5.9, -5.63, -4.2, -2.28, 0.0, 0.0, 1.62, 2.82, 4.05, 5.92, 5.25, 4.71, 2.2, 0.72, 0.96, 4.24, 5.36, 6.26, 6.51, 3.79, 0.0, -2.6, -1.98, -1.98, -1.98, -7.63, -8.01, -7.63, -7.9, -7.9, -7.9, -7.79, -8.05, -8.05, -8.31, -7.93, -8.18, -8.18, -8.18, -8.36, -8.36, -8.36, -8.36, -8.36, -8.01, -8.01, -8.01, -7.69, -7.69, -7.69, -7.39, -7.39, -7.17, -6.94, -6.94, -6.46, -6.72, -6.5, -6.3, -6.08, -5.92, -6.21, -5.77, -5.86, -6.36, -6.11, -6.11, -5.85, -5.1, -5.1, -5.05, -5.05, -4.8, -4.8, -4.8, -4.6, -4.63, -4.63, -4.69, -4.71, -4.73, -4.67, -3.79, -3.33, -3.0, -2.6, -2.99, -2.76, -3.35, -3.35, -3.79, -4.74, -5.6, -5.58, -5.06, -3.4, -1.67, -1.84, -3.65, -5.9, -5.63, -4.2, 0.0, 0.0, 0.0, 1.62, 3.11, 2.82, 1.91, 0.72, 0.0, 0.0, 1.58, 4.47, 4.66, 5.7, 7.37, 5.6, 0.0, -2.6, 0.0, 0.0, 0.0, -8.01, -8.01, -7.63, -7.9, -7.9, -7.9, -8.18, -8.05, -8.05, -8.31, -7.93, -8.18, -8.18, -8.18, -7.82, -7.82, -7.82, -8.36, -8.36, -8.36, -8.01, -8.01, -7.69, -7.69, -7.69, -7.69, -7.17, -7.17, -6.94, -6.72, -6.72, -6.5, -6.5, -6.3, -6.35, -5.92, -6.21, -5.77, -5.86, -5.86, -5.95, -5.95, -5.39, -5.39, -5.39, -5.1, -5.1, -5.05, -4.8, -4.8, -4.8, -4.84, -4.63, -4.92, -4.96, -4.73, -4.75, -4.67, -3.79, -3.33, -3.47, -3.22, -3.63, -3.63, -4.11, -4.11, -4.74, -5.21, -6.51, -6.94, -7.37, -6.44, -6.01, -5.59, -5.9, -6.64, -5.21, -2.83, 0.0, 0.0, 0.0, 1.93, 1.45, 0.0, 0.0, 0.0, 0.0, 1.84, 0.0, -0.0, 0.0, 3.2, 0.0, -2.4, 0.0, 7.6, 7.6, 7.6, -8.01, -8.01, -8.01, -7.63, -7.9, -7.9, -8.18, -7.79, -8.05, -8.05, -8.31, -7.93, -8.18, -8.18, -8.18, -7.82, -7.82, -7.82, -8.36, -8.61, -8.01, -8.01, -8.01, -7.69, -7.69, -7.46, -7.46, -7.46, -6.94, -6.72, -6.72, -6.5, -6.76, -6.08, -6.35, -5.92, -6.21, -5.77, -5.86, -5.86, -5.62, -5.95, -5.39, -5.39, -5.39, -5.15, -5.1, -5.1, -4.84, -5.05, -5.05, -4.84, -4.88, -5.15, -5.21, -5.66, -5.1, -4.75, -4.71, -4.02, -3.9, -4.01, -4.01, -4.01, -4.01, -4.43, -4.11, -4.11, -5.95, -5.95, -7.06, -7.89, -7.6, -6.44, -6.8, -8.0, -7.44, -6.32, -2.97, -2.28, -2.28, 0.0, 0.97, 1.58, 2.08, 2.3, 1.11, 0.0, -3.6, -3.82, -4.47, -6.4, -5.37, 0.0, 7.44, 7.67, 7.67, 7.67, -8.01, -8.01, -8.01, -8.01, -7.63, -7.9, -8.18, -8.05, -8.05, -8.05, -8.05, -7.93, -8.18, -8.18, -8.18, -7.82, -7.82, -7.82, -7.82, -8.61, -8.26, -8.01, -8.01, -7.69, -7.46, -7.46, -7.46, -7.23, -7.23, -6.72, -6.72, -6.5, -6.76, -6.08, -6.35, -5.92, -6.21, -6.29, -5.54, -5.86, -5.62, -5.39, -5.39, -5.39, -5.39, -5.1, -5.1, -5.1, -4.84, -4.84, -4.84, -4.84, -4.88, -5.15, -5.9, -5.63, -5.38, -5.38, -5.05, -4.71, -4.36, -4.36, -4.07, -4.07, -4.36, -4.36, -4.74, -3.78, -3.97, -5.06, -5.69, -6.79, -7.15, -6.32, -6.32, -7.07, -7.89, -8.77, -8.4, -6.64, -4.96, -5.21, 1.18, 3.46, 4.16, 3.68, 1.67, -2.4, -2.68, -4.15, -5.81, -7.63, -8.05, 7.44, 7.33, 7.07, 7.07, 7.07, -8.01, -8.01, -8.01, -8.01, -7.63, -7.63, -7.9, -7.79, -7.79, -7.79, -8.05, -7.93, -7.93, -8.18, -8.18, -8.18, -7.82, -7.82, -7.82, -8.06, -8.61, -8.26, -8.26, -8.01, -7.46, -7.46, -7.46, -7.23, -7.23, -6.72, -6.5, -6.5, -6.53, -6.35, -6.35, -5.92, -6.21, -6.29, -5.54, -5.54, -5.62, -5.39, -5.39, -5.1, -5.1, -5.1, -5.1, -5.1, -4.84, -4.84, -4.84, -5.1, -4.87, -5.15, -5.9, -6.01, -6.31, -5.71, -5.38, -4.75, -4.71, -5.06, -4.74, -4.36, -4.36, -4.36, -4.36, -4.36, -4.43, -5.37, -4.22, -4.46, -4.71, -2.83, 0.0, 0.0, -7.44, -8.77, -8.77, -8.77, -8.67, -6.32, -1.54, 1.05, 2.72, 2.72, 1.25, -2.4, -2.95, -4.8, -7.15, -0.0, 7.51, 7.33, 7.81, 8.15, 8.15, 8.15, -8.01, -8.01, -8.01, -8.01, -7.9, -7.9, -7.9, -7.9, -7.79, -7.79, -8.05, -8.31, -7.93, -8.18, -8.18, -8.18, -7.82, -7.82, -7.82, -7.82, -8.61, -8.26, -8.26, -8.01, -7.77, -7.46, -7.46, -7.23, -6.99, -6.99, -6.5, -6.53, -6.53, -6.35, -6.4, -5.92, -6.21, -6.29, -6.29, -5.54, -5.54, -5.32, -5.1, -5.1, -5.1, -5.1, -5.1, -5.1, -4.84, -4.84, -5.1, -4.87, -4.87, -4.66, -5.46, -6.3, -6.34, -6.32, -5.71, -5.38, -5.06, -5.06, -5.06, -5.06, -4.29, -4.29, -4.29, -4.65, -4.36, -5.06, -4.22, -4.22, -4.46, -3.6, 0.0, -2.69, -4.71, -8.77, -8.82, -8.94, -8.33, -8.3, -6.64, -2.49, 0.0, 0.86, 0.75, 0.0, -0.0, -0.0, -0.0, 6.64, 7.81, 8.15, 8.15, 8.4, 8.4, 8.4, -8.01, -8.01, -8.01, -8.01, -8.3, -7.9, -7.9, -8.18, -7.79, -7.79, -8.05, -8.05, -7.93, -8.18, -8.18, -8.18, -8.18, -7.82, -7.82, -8.06, -8.61, -8.61, -8.26, -8.01, -7.77, -7.77, -7.53, -7.23, -6.99, -6.76, -6.76, -6.53, -6.53, -6.12, -6.4, -5.92, -5.98, -6.29, -6.29, -6.04, -6.04, -5.8, -5.8, -5.56, -5.32, -5.1, -5.1, -5.56, -5.29, -5.29, -5.1, -5.15, -4.87, -4.96, -5.46, -5.9, -6.34, -6.34, -6.32, -6.01, -5.69, -5.06, -5.06, -5.06, -4.71, -4.29, -4.29, -4.65, -4.65, -5.06, -5.06, -5.95, -5.95, -6.8, -7.63, -7.07, -6.01, -6.79, -8.06, -8.49, -8.94, -9.21, -8.05, -4.88, -2.61, -0.86, 0.0, 0.0, 0.0, 8.49, 7.51, 7.47, 7.81, 8.4, 8.58, 8.58, 8.58, 8.58, -8.01, -8.01, -8.01, -8.01, -8.3, -7.9, -7.9, -8.18, -7.79, -7.79, -8.05, -8.05, -7.93, -7.93, -8.18, -7.93, -7.93, -7.82, -7.82, -8.36, -8.61, -8.61, -8.26, -8.26, -7.77, -7.53, -7.53, -7.53, -6.99, -6.76, -6.76, -6.53, -6.8, -6.12, -6.4, -6.21, -6.21, -5.98, -6.29, -6.04, -6.04, -5.8, -5.8, -5.8, -5.8, -5.8, -5.56, -5.56, -5.29, -5.29, -4.84, -5.15, -4.66, -4.96, -4.96, -5.63, -6.01, -6.34, -6.64, -6.32, -6.01, -5.69, -5.37, -5.06, -5.06, -4.71, -4.29, -4.56, -4.95, -5.06, -5.09, -6.32, -5.95, -5.06, -6.32, -7.2, -6.01, -6.01, -4.96, -8.67, -8.0, -8.4, -6.64, -5.21, -3.42, -1.61, -0.78, 0.0, 0.0, 1.4, 7.51, 9.64, 9.21, 9.13, 8.82, 8.82, 8.82, 8.82, -8.01, -8.01, -8.01, -8.01, -8.01, -7.9, -7.9, -7.9, -8.18, -7.79, -8.05, -8.05, -8.31, -7.93, -7.93, -7.93, -7.93, -7.58, -8.36, -8.36, -8.36, -8.61, -8.61, -8.01, -7.77, -7.53, -7.53, -7.29, -6.99, -6.76, -6.76, -6.53, -6.56, -6.4, -6.4, -6.21, -6.21, -5.98, -6.29, -6.29, -6.04, -6.04, -6.04, -5.8, -5.8, -5.8, -5.56, -5.56, -5.29, -5.29, -4.63, -5.15, -5.15, -4.96, -4.96, -5.21, -6.01, -6.04, -6.64, -6.32, -6.32, -6.01, -5.69, -5.37, -5.05, -5.37, -5.0, -4.56, -5.24, -5.37, -5.15, -5.37, -4.74, -3.4, -3.2, -5.37, -5.69, -2.69, 0.0, -2.83, -6.32, -6.64, -5.86, -5.21, -3.42, -2.31, -0.78, 0.0, 0.68, 0.75, 1.84, 5.86, 9.74, 9.24, 8.97, 8.48, 8.48, 8.48, -8.01, -8.01, -8.3, -8.3, -8.3, -7.9, -7.9, -7.9, -7.9, -7.79, -7.79, -8.05, -8.31, -7.93, -7.93, -7.93, -7.93, -7.93, -8.1, -8.36, -8.36, -8.36, -8.36, -8.36, -7.77, -7.53, -7.53, -7.29, -7.29, -6.76, -6.76, -6.8, -6.12, -6.4, -6.4, -5.98, -5.98, -5.98, -6.29, -6.04, -6.04, -6.04, -6.04, -5.8, -5.8, -5.8, -5.8, -5.56, -5.29, -5.29, -4.88, -5.15, -5.15, -5.46, -4.73, -5.21, -5.63, -5.72, -6.04, -6.32, -6.32, -6.01, -6.01, -5.69, -5.37, -5.05, -5.0, -5.3, -5.24, -5.37, -4.74, -3.63, -3.22, 0.0, 0.0, -5.37, -5.69, -3.8, 0.0, -2.69, -5.36, -6.32, -5.21, -4.98, -4.3, -2.28, -0.75, 0.0, 0.8, 0.75, 1.54, 3.11, 6.64, 8.9, 8.8, 8.77, 8.77, 8.77, -8.01, -8.01, -8.3, -8.3, -8.3, -7.9, -7.9, -7.9, -7.9, -7.79, -7.79, -8.05, -8.31, -7.93, -7.93, -7.93, -7.93, -7.93, -8.1, -8.36, -8.36, -8.36, -8.36, -8.36, -7.77, -7.53, -7.53, -7.29, -7.29, -6.76, -6.76, -6.8, -6.12, -6.4, -6.4, -5.98, -5.98, -5.98, -6.29, -6.04, -6.04, -6.04, -6.04, -5.8, -5.8, -5.8, -5.8, -5.56, -5.29, -5.29, -4.88, -5.15, -5.15, -5.46, -4.73, -5.21, -5.63, -5.72, -6.04, -6.32, -6.32, -6.01, -6.01, -5.69, -5.37, -5.05, -5.0, -5.3, -5.24, -5.37, -4.74, -3.63, -3.22, 0.0, 0.0, -5.37, -3.8, -3.8, 0.0, -2.69, -5.36, -6.32, -4.96, -4.98, -4.6, -2.51, -0.77, 0.0, 0.77, 1.58, 2.31, 3.49, 5.46, 8.63, 9.39, 9.32, 9.32, 9.32]}]